Observation data for Colorado City on 08/20/2019      Previous  Date       Current Mesonet Observations  Soil Data  Daily Summary Page  Observations in Plain Language
KCO2 200500Z 13007KT 28/17 A3003 RMK A01 T02840166  RH  049%=      5-min Rain = 0
KCO2 200501Z 13007KT 28/17 A3003 RMK A01 T02840166  RH  049%=      5-min Rain = 0
KCO2 200502Z 12007KT 28/17 A3003 RMK A01 T02840166  RH  049%=      5-min Rain = 0
KCO2 200503Z 13007KT 28/17 A3003 RMK A01 T02840166  RH  049%=      5-min Rain = 0
KCO2 200504Z 12007KT 29/17 A3003 RMK A01 T02850166  RH  049%=      5-min Rain = 0
KCO2 200505Z 12007KT 28/17 A3003 RMK A01 T02840166  RH  049%=      5-min Rain = 0
KCO2 200506Z 12007KT 28/17 A3003 RMK A01 T02840166  RH  049%=      5-min Rain = 0
KCO2 200507Z 12006KT 28/17 A3003 RMK A01 T02830166  RH  049%=      5-min Rain = 0
KCO2 200508Z 12006KT 28/17 A3003 RMK A01 T02830166  RH  049%=      5-min Rain = 0
KCO2 200509Z 13007KT 28/17 A3003 RMK A01 T02830166  RH  049%=      5-min Rain = 0
KCO2 200510Z 12007KT 28/17 A3003 RMK A01 T02820166  RH  049%=      5-min Rain = 0
KCO2 200511Z 12007KT 28/17 A3003 RMK A01 T02820166  RH  049%=      5-min Rain = 0
KCO2 200512Z 12007KT 28/17 A3003 RMK A01 T02820166  RH  049%=      5-min Rain = 0
KCO2 200513Z 13007KT 28/17 A3003 RMK A01 T02820166  RH  049%=      5-min Rain = 0
KCO2 200514Z 12007KT 28/17 A3003 RMK A01 T02820166  RH  049%=      5-min Rain = 0
KCO2 200515Z 12007KT 28/17 A3003 RMK A01 T02820166  RH  049%=      5-min Rain = 0
KCO2 200516Z 12006KT 28/17 A3003 RMK A01 T02820165  RH  049%=      5-min Rain = 0
KCO2 200517Z 12007KT 28/17 A3003 RMK A01 T02820166  RH  049%=      5-min Rain = 0
KCO2 200518Z 12007KT 28/17 A3003 RMK A01 T02820166  RH  049%=      5-min Rain = 0
KCO2 200519Z 12007KT 28/17 A3003 RMK A01 T02820166  RH  049%=      5-min Rain = 0
KCO2 200520Z 12007KT 28/17 A3003 RMK A01 T02820166  RH  049%=      5-min Rain = 0
KCO2 200521Z 13007KT 28/17 A3003 RMK A01 T02820165  RH  049%=      5-min Rain = 0
KCO2 200522Z 12007KT 28/17 A3003 RMK A01 T02820166  RH  049%=      5-min Rain = 0
KCO2 200523Z 13007KT 28/17 A3003 RMK A01 T02820165  RH  049%=      5-min Rain = 0
KCO2 200524Z 12008KT 28/17 A3003 RMK A01 T02830166  RH  049%=      5-min Rain = 0
KCO2 200525Z 12007KT 28/17 A3003 RMK A01 T02830166  RH  049%=      5-min Rain = 0
KCO2 200526Z 13008KT 28/17 A3003 RMK A01 T02830166  RH  049%=      5-min Rain = 0
KCO2 200527Z 13007KT 28/17 A3003 RMK A01 T02840166  RH  049%=      5-min Rain = 0
KCO2 200528Z 13007KT 28/17 A3003 RMK A01 T02840166  RH  049%=      5-min Rain = 0
KCO2 200529Z 12007KT 28/17 A3003 RMK A01 T02840166  RH  049%=      5-min Rain = 0
KCO2 200530Z 13006KT 28/17 A3003 RMK A01 T02830166  RH  049%=      5-min Rain = 0
KCO2 200531Z 13007KT 28/17 A3003 RMK A01 T02830166  RH  049%=      5-min Rain = 0
KCO2 200532Z 13006KT 28/17 A3003 RMK A01 T02820166  RH  049%=      5-min Rain = 0
KCO2 200533Z 13007KT 28/17 A3003 RMK A01 T02820166  RH  049%=      5-min Rain = 0
KCO2 200534Z 13007KT 28/17 A3003 RMK A01 T02810166  RH  050%=      5-min Rain = 0
KCO2 200535Z 13006KT 28/17 A3003 RMK A01 T02810166  RH  050%=      5-min Rain = 0
KCO2 200536Z 13006KT 28/17 A3003 RMK A01 T02810166  RH  050%=      5-min Rain = 0
KCO2 200537Z 13007KT 28/17 A3003 RMK A01 T02800166  RH  050%=      5-min Rain = 0
KCO2 200538Z 13007KT 28/17 A3003 RMK A01 T02800166  RH  050%=      5-min Rain = 0
KCO2 200539Z 13007KT 28/17 A3003 RMK A01 T02800166  RH  050%=      5-min Rain = 0
KCO2 200540Z 13007KT 28/17 A3003 RMK A01 T02800166  RH  050%=      5-min Rain = 0
KCO2 200541Z 13006KT 28/17 A3003 RMK A01 T02800166  RH  050%=      5-min Rain = 0
KCO2 200542Z 13006KT 28/17 A3003 RMK A01 T02800166  RH  050%=      5-min Rain = 0
KCO2 200543Z 13007KT 28/17 A3003 RMK A01 T02790166  RH  050%=      5-min Rain = 0
KCO2 200544Z 13006KT 28/17 A3003 RMK A01 T02790167  RH  050%=      5-min Rain = 0
KCO2 200545Z 13007KT 28/17 A3003 RMK A01 T02790166  RH  050%=      5-min Rain = 0
KCO2 200546Z 13006KT 28/17 A3003 RMK A01 T02780167  RH  051%=      5-min Rain = 0
KCO2 200547Z 13006KT 28/17 A3003 RMK A01 T02770166  RH  051%=      5-min Rain = 0
KCO2 200548Z 13006KT 28/17 A3003 RMK A01 T02770167  RH  051%=      5-min Rain = 0
KCO2 200549Z 13006KT 28/17 A3003 RMK A01 T02760167  RH  051%=      5-min Rain = 0
KCO2 200550Z 13006KT 28/17 A3003 RMK A01 T02760167  RH  052%=      5-min Rain = 0
KCO2 200551Z 13006KT 28/17 A3003 RMK A01 T02750167  RH  052%=      5-min Rain = 0
KCO2 200552Z 13006KT 27/17 A3003 RMK A01 T02740167  RH  052%=      5-min Rain = 0
KCO2 200553Z 14006KT 27/17 A3003 RMK A01 T02740167  RH  052%=      5-min Rain = 0
KCO2 200554Z 13006KT 27/17 A3003 RMK A01 T02740167  RH  052%=      5-min Rain = 0
KCO2 200555Z 13006KT 27/17 A3003 RMK A01 T02730167  RH  052%=      5-min Rain = 0
KCO2 200556Z 13006KT 27/17 A3003 RMK A01 T02730168  RH  053%=      5-min Rain = 0
KCO2 200557Z 13006KT 27/17 A3003 RMK A01 T02720168  RH  053%=      5-min Rain = 0
KCO2 200558Z 13006KT 27/17 A3003 RMK A01 T02720168  RH  053%=      5-min Rain = 0
KCO2 200559Z 13006KT 27/17 A3004 RMK A01 T02720168  RH  053%=      5-min Rain = 0
KCO2 200600Z 13006KT 27/17 A3004 RMK A01 T02720168  RH  053%=      5-min Rain = 0
KCO2 200601Z 13007KT 27/17 A3004 RMK A01 T02710168  RH  053%=      5-min Rain = 0
KCO2 200602Z 13006KT 27/17 A3004 RMK A01 T02720168  RH  053%=      5-min Rain = 0
KCO2 200603Z 13006KT 27/17 A3004 RMK A01 T02720168  RH  053%=      5-min Rain = 0
KCO2 200604Z 13006KT 27/17 A3004 RMK A01 T02720168  RH  053%=      5-min Rain = 0
KCO2 200605Z 13006KT 27/17 A3004 RMK A01 T02720168  RH  053%=      5-min Rain = 0
KCO2 200606Z 13006KT 27/17 A3004 RMK A01 T02720168  RH  053%=      5-min Rain = 0
KCO2 200607Z 13006KT 27/17 A3004 RMK A01 T02720168  RH  053%=      5-min Rain = 0
KCO2 200608Z 13007KT 27/17 A3004 RMK A01 T02720169  RH  053%=      5-min Rain = 0
KCO2 200609Z 13007KT 27/17 A3004 RMK A01 T02720168  RH  053%=      5-min Rain = 0
KCO2 200610Z 13007KT 27/17 A3004 RMK A01 T02730168  RH  053%=      5-min Rain = 0
KCO2 200611Z 13007KT 27/17 A3004 RMK A01 T02740168  RH  052%=      5-min Rain = 0
KCO2 200612Z 13006KT 27/17 A3004 RMK A01 T02740168  RH  052%=      5-min Rain = 0
KCO2 200613Z 13007KT 27/17 A3004 RMK A01 T02740168  RH  052%=      5-min Rain = 0
KCO2 200614Z 13007KT 27/17 A3004 RMK A01 T02740168  RH  052%=      5-min Rain = 0
KCO2 200615Z 13007KT 27/17 A3004 RMK A01 T02740168  RH  052%=      5-min Rain = 0
KCO2 200616Z 13007KT 27/17 A3004 RMK A01 T02740168  RH  052%=      5-min Rain = 0
KCO2 200617Z 13007KT 27/17 A3004 RMK A01 T02740168  RH  052%=      5-min Rain = 0
KCO2 200618Z 14007KT 27/17 A3004 RMK A01 T02740168  RH  052%=      5-min Rain = 0
KCO2 200619Z 14007KT 27/17 A3004 RMK A01 T02740167  RH  052%=      5-min Rain = 0
KCO2 200620Z 14007KT 27/17 A3004 RMK A01 T02740167  RH  052%=      5-min Rain = 0
KCO2 200621Z 14007KT 27/17 A3004 RMK A01 T02740168  RH  052%=      5-min Rain = 0
KCO2 200622Z 13007KT 27/17 A3004 RMK A01 T02740168  RH  052%=      5-min Rain = 0
KCO2 200623Z 14007KT 27/17 A3004 RMK A01 T02740168  RH  052%=      5-min Rain = 0
KCO2 200624Z 14007KT 27/17 A3004 RMK A01 T02740168  RH  052%=      5-min Rain = 0
KCO2 200625Z 14007KT 27/17 A3004 RMK A01 T02740168  RH  052%=      5-min Rain = 0
KCO2 200626Z 14008KT 27/17 A3004 RMK A01 T02740168  RH  052%=      5-min Rain = 0
KCO2 200627Z 14008KT 27/17 A3004 RMK A01 T02740168  RH  052%=      5-min Rain = 0
KCO2 200628Z 14007KT 27/17 A3004 RMK A01 T02740167  RH  052%=      5-min Rain = 0
KCO2 200629Z 14007KT 27/17 A3004 RMK A01 T02740168  RH  052%=      5-min Rain = 0
KCO2 200630Z 14008KT 27/17 A3004 RMK A01 T02740168  RH  052%=      5-min Rain = 0
KCO2 200631Z 14007KT 27/17 A3004 RMK A01 T02740167  RH  052%=      5-min Rain = 0
KCO2 200632Z 14008KT 28/17 A3004 RMK A01 T02750167  RH  052%=      5-min Rain = 0
KCO2 200633Z 14008KT 28/17 A3004 RMK A01 T02750167  RH  052%=      5-min Rain = 0
KCO2 200634Z 14007KT 28/17 A3004 RMK A01 T02750167  RH  052%=      5-min Rain = 0
KCO2 200635Z 14008KT 28/17 A3004 RMK A01 T02750167  RH  052%=      5-min Rain = 0
KCO2 200636Z 14008KT 28/17 A3004 RMK A01 T02750167  RH  052%=      5-min Rain = 0
KCO2 200637Z 14008KT 28/17 A3004 RMK A01 T02760167  RH  052%=      5-min Rain = 0
KCO2 200638Z 14008KT 28/17 A3004 RMK A01 T02760167  RH  051%=      5-min Rain = 0
KCO2 200639Z 14008KT 28/17 A3004 RMK A01 T02770167  RH  051%=      5-min Rain = 0
KCO2 200640Z 14008KT 28/17 A3004 RMK A01 T02780168  RH  051%=      5-min Rain = 0
KCO2 200641Z 14007KT 28/17 A3004 RMK A01 T02790167  RH  051%=      5-min Rain = 0
KCO2 200642Z 14008KT 28/17 A3004 RMK A01 T02790168  RH  051%=      5-min Rain = 0
KCO2 200643Z 14008KT 28/17 A3004 RMK A01 T02800167  RH  050%=      5-min Rain = 0
KCO2 200644Z 14010KT 28/17 A3004 RMK A01 T02800168  RH  050%=      5-min Rain = 0
KCO2 200645Z 14009KT 28/17 A3004 RMK A01 T02810168  RH  050%=      5-min Rain = 0
KCO2 200646Z 14008KT 28/17 A3004 RMK A01 T02810167  RH  050%=      5-min Rain = 0
KCO2 200647Z 14009KT 28/17 A3004 RMK A01 T02800167  RH  050%=      5-min Rain = 0
KCO2 200648Z 15008KT 28/17 A3004 RMK A01 T02810167  RH  050%=      5-min Rain = 0
KCO2 200649Z 14008KT 28/17 A3004 RMK A01 T02810167  RH  050%=      5-min Rain = 0
KCO2 200650Z 14008KT 28/17 A3004 RMK A01 T02810167  RH  050%=      5-min Rain = 0
KCO2 200651Z 14009KT 28/17 A3004 RMK A01 T02810168  RH  050%=      5-min Rain = 0
KCO2 200652Z 14008KT 28/17 A3004 RMK A01 T02810168  RH  050%=      5-min Rain = 0
KCO2 200653Z 14008KT 28/17 A3004 RMK A01 T02800167  RH  050%=      5-min Rain = 0
KCO2 200654Z 14008KT 28/17 A3004 RMK A01 T02810167  RH  050%=      5-min Rain = 0
KCO2 200655Z 14008KT 28/17 A3004 RMK A01 T02800167  RH  050%=      5-min Rain = 0
KCO2 200656Z 14008KT 28/17 A3004 RMK A01 T02810168  RH  050%=      5-min Rain = 0
KCO2 200657Z 14008KT 28/17 A3004 RMK A01 T02800168  RH  051%=      5-min Rain = 0
KCO2 200658Z 14008KT 28/17 A3004 RMK A01 T02800168  RH  051%=      5-min Rain = 0
KCO2 200659Z 14007KT 28/17 A3004 RMK A01 T02790168  RH  051%=      5-min Rain = 0
KCO2 200700Z 14007KT 28/17 A3004 RMK A01 T02780168  RH  051%=      5-min Rain = 0
KCO2 200701Z 14007KT 28/17 A3004 RMK A01 T02770168  RH  051%=      5-min Rain = 0
KCO2 200702Z 14008KT 28/17 A3004 RMK A01 T02770168  RH  051%=      5-min Rain = 0
KCO2 200703Z 14007KT 28/17 A3004 RMK A01 T02760168  RH  052%=      5-min Rain = 0
KCO2 200704Z 14007KT 28/17 A3004 RMK A01 T02760168  RH  052%=      5-min Rain = 0
KCO2 200705Z 14008KT 28/17 A3004 RMK A01 T02760168  RH  052%=      5-min Rain = 0
KCO2 200706Z 14007KT 28/17 A3004 RMK A01 T02760168  RH  052%=      5-min Rain = 0
KCO2 200707Z 14007KT 28/17 A3004 RMK A01 T02760168  RH  052%=      5-min Rain = 0
KCO2 200708Z 14007KT 28/17 A3004 RMK A01 T02760168  RH  052%=      5-min Rain = 0
KCO2 200709Z 14007KT 28/17 A3004 RMK A01 T02750168  RH  052%=      5-min Rain = 0
KCO2 200710Z 14007KT 28/17 A3004 RMK A01 T02750168  RH  052%=      5-min Rain = 0
KCO2 200711Z 14008KT 27/17 A3004 RMK A01 T02740168  RH  052%=      5-min Rain = 0
KCO2 200712Z 14008KT 27/17 A3004 RMK A01 T02740168  RH  052%=      5-min Rain = 0
KCO2 200713Z 14007KT 27/17 A3004 RMK A01 T02740168  RH  052%=      5-min Rain = 0
KCO2 200714Z 14007KT 27/17 A3004 RMK A01 T02740168  RH  052%=      5-min Rain = 0
KCO2 200715Z 14008KT 27/17 A3004 RMK A01 T02740168  RH  052%=      5-min Rain = 0
KCO2 200716Z 14008KT 27/17 A3004 RMK A01 T02740168  RH  052%=      5-min Rain = 0
KCO2 200717Z 14008KT 27/17 A3004 RMK A01 T02740168  RH  052%=      5-min Rain = 0
KCO2 200718Z 14008KT 27/17 A3004 RMK A01 T02740168  RH  052%=      5-min Rain = 0
KCO2 200719Z 14007KT 27/17 A3004 RMK A01 T02740168  RH  052%=      5-min Rain = 0
KCO2 200720Z 14008KT 27/17 A3004 RMK A01 T02740168  RH  052%=      5-min Rain = 0
KCO2 200721Z 14008KT 27/17 A3004 RMK A01 T02740168  RH  052%=      5-min Rain = 0
KCO2 200722Z 14007KT 27/17 A3004 RMK A01 T02740168  RH  052%=      5-min Rain = 0
KCO2 200723Z 14008KT 27/17 A3004 RMK A01 T02740169  RH  052%=      5-min Rain = 0
KCO2 200724Z 14007KT 27/17 A3004 RMK A01 T02740169  RH  053%=      5-min Rain = 0
KCO2 200725Z 15008KT 27/17 A3004 RMK A01 T02740169  RH  053%=      5-min Rain = 0
KCO2 200726Z 15007KT 27/17 A3004 RMK A01 T02730169  RH  053%=      5-min Rain = 0
KCO2 200727Z 14008KT 27/17 A3004 RMK A01 T02730169  RH  053%=      5-min Rain = 0
KCO2 200728Z 14008KT 27/17 A3004 RMK A01 T02730169  RH  053%=      5-min Rain = 0
KCO2 200729Z 14007KT 27/17 A3004 RMK A01 T02730169  RH  053%=      5-min Rain = 0
KCO2 200730Z 14008KT 27/17 A3004 RMK A01 T02730169  RH  053%=      5-min Rain = 0
KCO2 200731Z 15010KT 27/17 A3004 RMK A01 T02740169  RH  053%=      5-min Rain = 0
KCO2 200732Z 14008KT 28/17 A3004 RMK A01 T02750169  RH  052%=      5-min Rain = 0
KCO2 200733Z 14008KT 28/17 A3004 RMK A01 T02760169  RH  052%=      5-min Rain = 0
KCO2 200734Z 15007KT 28/17 A3004 RMK A01 T02760169  RH  052%=      5-min Rain = 0
KCO2 200735Z 15007KT 28/17 A3004 RMK A01 T02760170  RH  052%=      5-min Rain = 0
KCO2 200736Z 15007KT 28/17 A3004 RMK A01 T02760169  RH  052%=      5-min Rain = 0
KCO2 200737Z 14007KT 28/17 A3004 RMK A01 T02750169  RH  052%=      5-min Rain = 0
KCO2 200738Z 14007KT 28/17 A3004 RMK A01 T02750169  RH  052%=      5-min Rain = 0
KCO2 200739Z 15007KT 28/17 A3004 RMK A01 T02750169  RH  052%=      5-min Rain = 0
KCO2 200740Z 15007KT 28/17 A3004 RMK A01 T02750169  RH  052%=      5-min Rain = 0
KCO2 200741Z 15006KT 28/17 A3004 RMK A01 T02750170  RH  053%=      5-min Rain = 0
KCO2 200742Z 15006KT 28/17 A3004 RMK A01 T02750169  RH  053%=      5-min Rain = 0
KCO2 200743Z 15007KT 27/17 A3004 RMK A01 T02740169  RH  053%=      5-min Rain = 0
KCO2 200744Z 15006KT 27/17 A3004 RMK A01 T02740170  RH  053%=      5-min Rain = 0
KCO2 200745Z 15006KT 27/17 A3004 RMK A01 T02740170  RH  053%=      5-min Rain = 0
KCO2 200746Z 15006KT 27/17 A3004 RMK A01 T02730170  RH  053%=      5-min Rain = 0
KCO2 200747Z 14005KT 27/17 A3004 RMK A01 T02730170  RH  053%=      5-min Rain = 0
KCO2 200748Z 15006KT 27/17 A3004 RMK A01 T02720169  RH  053%=      5-min Rain = 0
KCO2 200749Z 14006KT 27/17 A3004 RMK A01 T02720169  RH  054%=      5-min Rain = 0
KCO2 200750Z 15006KT 27/17 A3004 RMK A01 T02720170  RH  054%=      5-min Rain = 0
KCO2 200751Z 15006KT 27/17 A3004 RMK A01 T02710170  RH  054%=      5-min Rain = 0
KCO2 200752Z 14006KT 27/17 A3004 RMK A01 T02710170  RH  054%=      5-min Rain = 0
KCO2 200753Z 14006KT 27/17 A3004 RMK A01 T02710170  RH  054%=      5-min Rain = 0
KCO2 200754Z 15006KT 27/17 A3004 RMK A01 T02710170  RH  054%=      5-min Rain = 0
KCO2 200755Z 15005KT 27/17 A3004 RMK A01 T02710170  RH  054%=      5-min Rain = 0
KCO2 200756Z 15005KT 27/17 A3004 RMK A01 T02700170  RH  054%=      5-min Rain = 0
KCO2 200757Z 15005KT 27/17 A3004 RMK A01 T02700170  RH  054%=      5-min Rain = 0
KCO2 200758Z 15005KT 27/17 A3004 RMK A01 T02690170  RH  054%=      5-min Rain = 0
KCO2 200759Z 15006KT 27/17 A3004 RMK A01 T02690170  RH  054%=      5-min Rain = 0
KCO2 200800Z 15005KT 27/17 A3004 RMK A01 T02690170  RH  055%=      5-min Rain = 0
KCO2 200801Z 14005KT 27/17 A3004 RMK A01 T02690170  RH  055%=      5-min Rain = 0
KCO2 200802Z 15006KT 27/17 A3004 RMK A01 T02680170  RH  055%=      5-min Rain = 0
KCO2 200803Z 15005KT 27/17 A3004 RMK A01 T02680170  RH  055%=      5-min Rain = 0
KCO2 200804Z 15005KT 27/17 A3004 RMK A01 T02680170  RH  055%=      5-min Rain = 0
KCO2 200805Z 15005KT 27/17 A3004 RMK A01 T02670170  RH  055%=      5-min Rain = 0
KCO2 200806Z 15005KT 27/17 A3004 RMK A01 T02660170  RH  056%=      5-min Rain = 0
KCO2 200807Z 15005KT 27/17 A3004 RMK A01 T02650170  RH  056%=      5-min Rain = 0
KCO2 200808Z 15005KT 26/17 A3004 RMK A01 T02640170  RH  056%=      5-min Rain = 0
KCO2 200809Z 15005KT 26/17 A3004 RMK A01 T02640170  RH  056%=      5-min Rain = 0
KCO2 200810Z 16005KT 26/17 A3004 RMK A01 T02630170  RH  057%=      5-min Rain = 0
KCO2 200811Z 16005KT 26/17 A3004 RMK A01 T02620170  RH  057%=      5-min Rain = 0
KCO2 200812Z 16005KT 26/17 A3004 RMK A01 T02620169  RH  057%=      5-min Rain = 0
KCO2 200813Z 16004KT 26/17 A3004 RMK A01 T02610169  RH  057%=      5-min Rain = 0
KCO2 200814Z 16005KT 26/17 A3004 RMK A01 T02610170  RH  057%=      5-min Rain = 0
KCO2 200815Z 16005KT 26/17 A3004 RMK A01 T02600170  RH  057%=      5-min Rain = 0
KCO2 200816Z 16005KT 26/17 A3004 RMK A01 T02590169  RH  058%=      5-min Rain = 0
KCO2 200817Z 16005KT 26/17 A3004 RMK A01 T02590169  RH  058%=      5-min Rain = 0
KCO2 200818Z 16005KT 26/17 A3004 RMK A01 T02580169  RH  058%=      5-min Rain = 0
KCO2 200819Z 16005KT 26/17 A3004 RMK A01 T02580169  RH  058%=      5-min Rain = 0
KCO2 200820Z 16005KT 26/17 A3004 RMK A01 T02580170  RH  058%=      5-min Rain = 0
KCO2 200821Z 15005KT 26/17 A3004 RMK A01 T02570170  RH  058%=      5-min Rain = 0
KCO2 200822Z 15005KT 26/17 A3004 RMK A01 T02570169  RH  058%=      5-min Rain = 0
KCO2 200823Z 15005KT 26/17 A3004 RMK A01 T02560169  RH  059%=      5-min Rain = 0
KCO2 200824Z 15005KT 26/17 A3004 RMK A01 T02560169  RH  059%=      5-min Rain = 0
KCO2 200825Z 15005KT 26/17 A3004 RMK A01 T02550169  RH  059%=      5-min Rain = 0
KCO2 200826Z 15005KT 26/17 A3004 RMK A01 T02550169  RH  059%=      5-min Rain = 0
KCO2 200827Z 15005KT 26/17 A3004 RMK A01 T02550169  RH  059%=      5-min Rain = 0
KCO2 200828Z 15005KT 26/17 A3004 RMK A01 T02550169  RH  059%=      5-min Rain = 0
KCO2 200829Z 15005KT 26/17 A3004 RMK A01 T02560169  RH  059%=      5-min Rain = 0
KCO2 200830Z 14004KT 26/17 A3004 RMK A01 T02560169  RH  059%=      5-min Rain = 0
KCO2 200831Z 15004KT 26/17 A3004 RMK A01 T02560169  RH  059%=      5-min Rain = 0
KCO2 200832Z 15004KT 26/17 A3004 RMK A01 T02560170  RH  059%=      5-min Rain = 0
KCO2 200833Z 15004KT 26/17 A3004 RMK A01 T02560170  RH  059%=      5-min Rain = 0
KCO2 200834Z 14004KT 26/17 A3004 RMK A01 T02560170  RH  059%=      5-min Rain = 0
KCO2 200835Z 14004KT 26/17 A3004 RMK A01 T02560170  RH  059%=      5-min Rain = 0
KCO2 200836Z 14004KT 26/17 A3004 RMK A01 T02560170  RH  059%=      5-min Rain = 0
KCO2 200837Z 14004KT 26/17 A3004 RMK A01 T02570170  RH  059%=      5-min Rain = 0
KCO2 200838Z 14004KT 26/17 A3004 RMK A01 T02570170  RH  058%=      5-min Rain = 0
KCO2 200839Z 14004KT 26/17 A3004 RMK A01 T02580170  RH  058%=      5-min Rain = 0
KCO2 200840Z 14004KT 26/17 A3004 RMK A01 T02580170  RH  058%=      5-min Rain = 0
KCO2 200841Z 14004KT 26/17 A3004 RMK A01 T02580171  RH  058%=      5-min Rain = 0
KCO2 200842Z 14004KT 26/17 A3004 RMK A01 T02590171  RH  058%=      5-min Rain = 0
KCO2 200843Z 14004KT 26/17 A3004 RMK A01 T02590171  RH  058%=      5-min Rain = 0
KCO2 200844Z 14004KT 26/17 A3004 RMK A01 T02580171  RH  059%=      5-min Rain = 0
KCO2 200845Z 15004KT 26/17 A3004 RMK A01 T02570171  RH  059%=      5-min Rain = 0
KCO2 200846Z 15004KT 26/17 A3004 RMK A01 T02570171  RH  059%=      5-min Rain = 0
KCO2 200847Z 14004KT 26/17 A3004 RMK A01 T02560171  RH  059%=      5-min Rain = 0
KCO2 200848Z 15004KT 26/17 A3004 RMK A01 T02550171  RH  059%=      5-min Rain = 0
KCO2 200849Z 14004KT 26/17 A3004 RMK A01 T02550171  RH  060%=      5-min Rain = 0
KCO2 200850Z 14004KT 25/17 A3004 RMK A01 T02540171  RH  060%=      5-min Rain = 0
KCO2 200851Z 15004KT 25/17 A3004 RMK A01 T02540171  RH  060%=      5-min Rain = 0
KCO2 200852Z 15004KT 25/17 A3004 RMK A01 T02540171  RH  060%=      5-min Rain = 0
KCO2 200853Z 15004KT 25/17 A3004 RMK A01 T02530171  RH  060%=      5-min Rain = 0
KCO2 200854Z 14004KT 25/17 A3004 RMK A01 T02520171  RH  060%=      5-min Rain = 0
KCO2 200855Z 14004KT 25/17 A3004 RMK A01 T02530171  RH  061%=      5-min Rain = 0
KCO2 200856Z 14005KT 25/17 A3004 RMK A01 T02520171  RH  061%=      5-min Rain = 0
KCO2 200857Z 14005KT 25/17 A3004 RMK A01 T02520171  RH  061%=      5-min Rain = 0
KCO2 200858Z 14004KT 25/17 A3004 RMK A01 T02520171  RH  061%=      5-min Rain = 0
KCO2 200859Z 14005KT 25/17 A3004 RMK A01 T02510171  RH  061%=      5-min Rain = 0
KCO2 200900Z 14005KT 25/17 A3004 RMK A01 T02510171  RH  061%=      5-min Rain = 0
KCO2 200901Z 14005KT 25/17 A3004 RMK A01 T02500170  RH  061%=      5-min Rain = 0
KCO2 200902Z 14005KT 25/17 A3004 RMK A01 T02500171  RH  061%=      5-min Rain = 0
KCO2 200903Z 15005KT 25/17 A3004 RMK A01 T02500170  RH  061%=      5-min Rain = 0
KCO2 200904Z 15005KT 25/17 A3004 RMK A01 T02500171  RH  061%=      5-min Rain = 0
KCO2 200905Z 15005KT 25/17 A3004 RMK A01 T02490170  RH  061%=      5-min Rain = 0
KCO2 200906Z 15005KT 25/17 A3004 RMK A01 T02490170  RH  062%=      5-min Rain = 0
KCO2 200907Z 14005KT 25/17 A3004 RMK A01 T02490171  RH  062%=      5-min Rain = 0
KCO2 200908Z 15005KT 25/17 A3004 RMK A01 T02490170  RH  062%=      5-min Rain = 0
KCO2 200909Z 15005KT 25/17 A3004 RMK A01 T02480170  RH  062%=      5-min Rain = 0
KCO2 200910Z 15005KT 25/17 A3004 RMK A01 T02490170  RH  062%=      5-min Rain = 0
KCO2 200911Z 15005KT 25/17 A3004 RMK A01 T02480170  RH  062%=      5-min Rain = 0
KCO2 200912Z 15005KT 25/17 A3004 RMK A01 T02480170  RH  062%=      5-min Rain = 0
KCO2 200913Z 15005KT 25/17 A3004 RMK A01 T02470170  RH  062%=      5-min Rain = 0
KCO2 200914Z 15005KT 25/17 A3004 RMK A01 T02470170  RH  062%=      5-min Rain = 0
KCO2 200915Z 15005KT 25/17 A3004 RMK A01 T02470171  RH  062%=      5-min Rain = 0
KCO2 200916Z 15005KT 25/17 A3004 RMK A01 T02470170  RH  062%=      5-min Rain = 0
KCO2 200917Z 15005KT 25/17 A3004 RMK A01 T02470170  RH  062%=      5-min Rain = 0
KCO2 200918Z 15004KT 25/17 A3004 RMK A01 T02470171  RH  062%=      5-min Rain = 0
KCO2 200919Z 16005KT 25/17 A3004 RMK A01 T02470171  RH  062%=      5-min Rain = 0
KCO2 200920Z 16005KT 25/17 A3004 RMK A01 T02470170  RH  062%=      5-min Rain = 0
KCO2 200921Z 15005KT 25/17 A3004 RMK A01 T02470170  RH  062%=      5-min Rain = 0
KCO2 200922Z 15005KT 25/17 A3004 RMK A01 T02480171  RH  062%=      5-min Rain = 0
KCO2 200923Z 15005KT 25/17 A3004 RMK A01 T02460171  RH  063%=      5-min Rain = 0
KCO2 200924Z 15005KT 25/17 A3004 RMK A01 T02460171  RH  063%=      5-min Rain = 0
KCO2 200925Z 16005KT 25/17 A3004 RMK A01 T02450171  RH  063%=      5-min Rain = 0
KCO2 200926Z 16006KT 25/17 A3004 RMK A01 T02450171  RH  063%=      5-min Rain = 0
KCO2 200927Z 16006KT 24/17 A3004 RMK A01 T02440171  RH  064%=      5-min Rain = 0
KCO2 200928Z 16006KT 24/17 A3004 RMK A01 T02440171  RH  064%=      5-min Rain = 0
KCO2 200929Z 15006KT 24/17 A3004 RMK A01 T02440171  RH  064%=      5-min Rain = 0
KCO2 200930Z 15006KT 24/17 A3004 RMK A01 T02430171  RH  064%=      5-min Rain = 0
KCO2 200931Z 16006KT 24/17 A3004 RMK A01 T02430171  RH  064%=      5-min Rain = 0
KCO2 200932Z 16006KT 24/17 A3004 RMK A01 T02430171  RH  064%=      5-min Rain = 0
KCO2 200933Z 16006KT 24/17 A3004 RMK A01 T02440171  RH  064%=      5-min Rain = 0
KCO2 200934Z 16006KT 24/17 A3004 RMK A01 T02430171  RH  064%=      5-min Rain = 0
KCO2 200935Z 16006KT 24/17 A3004 RMK A01 T02430171  RH  064%=      5-min Rain = 0
KCO2 200936Z 16006KT 24/17 A3004 RMK A01 T02430171  RH  064%=      5-min Rain = 0
KCO2 200937Z 16005KT 24/17 A3004 RMK A01 T02430171  RH  064%=      5-min Rain = 0
KCO2 200938Z 16005KT 24/17 A3004 RMK A01 T02430171  RH  064%=      5-min Rain = 0
KCO2 200939Z 16005KT 24/17 A3004 RMK A01 T02430171  RH  064%=      5-min Rain = 0
KCO2 200940Z 16005KT 24/17 A3004 RMK A01 T02420171  RH  064%=      5-min Rain = 0
KCO2 200941Z 16005KT 24/17 A3004 RMK A01 T02420171  RH  064%=      5-min Rain = 0
KCO2 200942Z 16005KT 24/17 A3004 RMK A01 T02430171  RH  064%=      5-min Rain = 0
KCO2 200943Z 15005KT 24/17 A3004 RMK A01 T02430171  RH  064%=      5-min Rain = 0
KCO2 200944Z 16005KT 24/17 A3004 RMK A01 T02420171  RH  064%=      5-min Rain = 0
KCO2 200945Z 16005KT 24/17 A3004 RMK A01 T02420171  RH  064%=      5-min Rain = 0
KCO2 200946Z 15005KT 24/17 A3004 RMK A01 T02420171  RH  064%=      5-min Rain = 0
KCO2 200947Z 15005KT 24/17 A3004 RMK A01 T02420171  RH  064%=      5-min Rain = 0
KCO2 200948Z 15005KT 24/17 A3004 RMK A01 T02420171  RH  064%=      5-min Rain = 0
KCO2 200949Z 15004KT 24/17 A3004 RMK A01 T02420171  RH  065%=      5-min Rain = 0
KCO2 200950Z 15004KT 24/17 A3005 RMK A01 T02410170  RH  065%=      5-min Rain = 0
KCO2 200951Z 15004KT 24/17 A3005 RMK A01 T02420171  RH  065%=      5-min Rain = 0
KCO2 200952Z 15005KT 24/17 A3005 RMK A01 T02420171  RH  065%=      5-min Rain = 0
KCO2 200953Z 15004KT 24/17 A3005 RMK A01 T02410171  RH  065%=      5-min Rain = 0
KCO2 200954Z 15004KT 24/17 A3005 RMK A01 T02400170  RH  065%=      5-min Rain = 0
KCO2 200955Z 15004KT 24/17 A3005 RMK A01 T02400171  RH  065%=      5-min Rain = 0
KCO2 200956Z 15004KT 24/17 A3005 RMK A01 T02400170  RH  065%=      5-min Rain = 0
KCO2 200957Z 15004KT 24/17 A3004 RMK A01 T02400170  RH  065%=      5-min Rain = 0
KCO2 200958Z 15004KT 24/17 A3004 RMK A01 T02400170  RH  065%=      5-min Rain = 0
KCO2 200959Z 16004KT 24/17 A3004 RMK A01 T02410170  RH  065%=      5-min Rain = 0
KCO2 201000Z 16004KT 24/17 A3004 RMK A01 T02410170  RH  064%=      5-min Rain = 0
KCO2 201001Z 16004KT 24/17 A3004 RMK A01 T02420170  RH  064%=      5-min Rain = 0
KCO2 201002Z 16004KT 24/17 A3004 RMK A01 T02420170  RH  064%=      5-min Rain = 0
KCO2 201003Z 16004KT 24/17 A3004 RMK A01 T02420170  RH  064%=      5-min Rain = 0
KCO2 201004Z 16004KT 24/17 A3005 RMK A01 T02420170  RH  064%=      5-min Rain = 0
KCO2 201005Z 16004KT 24/17 A3005 RMK A01 T02420170  RH  064%=      5-min Rain = 0
KCO2 201006Z 16004KT 24/17 A3005 RMK A01 T02420170  RH  064%=      5-min Rain = 0
KCO2 201007Z 16004KT 24/17 A3005 RMK A01 T02420171  RH  064%=      5-min Rain = 0
KCO2 201008Z 16004KT 24/17 A3005 RMK A01 T02420170  RH  064%=      5-min Rain = 0
KCO2 201009Z 16004KT 24/17 A3005 RMK A01 T02410170  RH  065%=      5-min Rain = 0
KCO2 201010Z 16004KT 24/17 A3005 RMK A01 T02410170  RH  065%=      5-min Rain = 0
KCO2 201011Z 16004KT 24/17 A3005 RMK A01 T02410170  RH  065%=      5-min Rain = 0
KCO2 201012Z 16004KT 24/17 A3005 RMK A01 T02410170  RH  065%=      5-min Rain = 0
KCO2 201013Z 16004KT 24/17 A3005 RMK A01 T02410170  RH  065%=      5-min Rain = 0
KCO2 201014Z 16004KT 24/17 A3005 RMK A01 T02410170  RH  065%=      5-min Rain = 0
KCO2 201015Z 16004KT 24/17 A3005 RMK A01 T02410170  RH  065%=      5-min Rain = 0
KCO2 201016Z 16004KT 24/17 A3005 RMK A01 T02410170  RH  064%=      5-min Rain = 0
KCO2 201017Z 16004KT 24/17 A3005 RMK A01 T02420170  RH  064%=      5-min Rain = 0
KCO2 201018Z 16004KT 24/17 A3005 RMK A01 T02420170  RH  064%=      5-min Rain = 0
KCO2 201019Z 16004KT 24/17 A3005 RMK A01 T02410171  RH  065%=      5-min Rain = 0
KCO2 201020Z 16004KT 24/17 A3005 RMK A01 T02400171  RH  065%=      5-min Rain = 0
KCO2 201021Z 16004KT 24/17 A3005 RMK A01 T02400170  RH  065%=      5-min Rain = 0
KCO2 201022Z 16004KT 24/17 A3005 RMK A01 T02400170  RH  065%=      5-min Rain = 0
KCO2 201023Z 16004KT 24/17 A3005 RMK A01 T02390170  RH  065%=      5-min Rain = 0
KCO2 201024Z 17005KT 24/17 A3005 RMK A01 T02390170  RH  065%=      5-min Rain = 0
KCO2 201025Z 17005KT 24/17 A3005 RMK A01 T02380170  RH  066%=      5-min Rain = 0
KCO2 201026Z 17005KT 24/17 A3005 RMK A01 T02370169  RH  066%=      5-min Rain = 0
KCO2 201027Z 17005KT 24/17 A3005 RMK A01 T02360169  RH  066%=      5-min Rain = 0
KCO2 201028Z 17005KT 24/17 A3005 RMK A01 T02350168  RH  066%=      5-min Rain = 0
KCO2 201029Z 17005KT 23/17 A3005 RMK A01 T02340168  RH  067%=      5-min Rain = 0
KCO2 201030Z 17004KT 23/17 A3005 RMK A01 T02330168  RH  067%=      5-min Rain = 0
KCO2 201031Z 17005KT 23/17 A3005 RMK A01 T02320168  RH  067%=      5-min Rain = 0
KCO2 201032Z 17005KT 23/17 A3005 RMK A01 T02320168  RH  068%=      5-min Rain = 0
KCO2 201033Z 17004KT 23/17 A3005 RMK A01 T02310169  RH  068%=      5-min Rain = 0
KCO2 201034Z 17004KT 23/17 A3005 RMK A01 T02320169  RH  068%=      5-min Rain = 0
KCO2 201035Z 17004KT 23/17 A3005 RMK A01 T02320169  RH  068%=      5-min Rain = 0
KCO2 201036Z 17004KT 23/17 A3005 RMK A01 T02320169  RH  068%=      5-min Rain = 0
KCO2 201037Z 17005KT 23/17 A3006 RMK A01 T02330169  RH  067%=      5-min Rain = 0
KCO2 201038Z 18005KT 23/17 A3006 RMK A01 T02330169  RH  067%=      5-min Rain = 0
KCO2 201039Z 18005KT 23/17 A3006 RMK A01 T02330169  RH  067%=      5-min Rain = 0
KCO2 201040Z 18004KT 23/17 A3006 RMK A01 T02320169  RH  067%=      5-min Rain = 0
KCO2 201041Z 19004KT 23/17 A3006 RMK A01 T02310169  RH  068%=      5-min Rain = 0
KCO2 201042Z 19004KT 23/17 A3006 RMK A01 T02300168  RH  068%=      5-min Rain = 0
KCO2 201043Z 19004KT 23/17 A3006 RMK A01 T02290168  RH  068%=      5-min Rain = 0
KCO2 201044Z 19004KT 23/17 A3006 RMK A01 T02290169  RH  069%=      5-min Rain = 0
KCO2 201045Z 19004KT 23/17 A3006 RMK A01 T02300168  RH  068%=      5-min Rain = 0
KCO2 201046Z 18004KT 23/17 A3006 RMK A01 T02300168  RH  068%=      5-min Rain = 0
KCO2 201047Z 18004KT 23/17 A3006 RMK A01 T02300169  RH  068%=      5-min Rain = 0
KCO2 201048Z 18004KT 23/17 A3006 RMK A01 T02310168  RH  068%=      5-min Rain = 0
KCO2 201049Z 18004KT 23/17 A3006 RMK A01 T02320168  RH  067%=      5-min Rain = 0
KCO2 201050Z 17005KT 23/17 A3006 RMK A01 T02320168  RH  067%=      5-min Rain = 0
KCO2 201051Z 18005KT 23/17 A3006 RMK A01 T02320168  RH  067%=      5-min Rain = 0
KCO2 201052Z 18005KT 23/17 A3006 RMK A01 T02320168  RH  068%=      5-min Rain = 0
KCO2 201053Z 17005KT 23/17 A3006 RMK A01 T02320168  RH  067%=      5-min Rain = 0
KCO2 201054Z 17005KT 23/17 A3006 RMK A01 T02310168  RH  067%=      5-min Rain = 0
KCO2 201055Z 17005KT 23/17 A3006 RMK A01 T02310167  RH  067%=      5-min Rain = 0
KCO2 201056Z 17005KT 23/17 A3006 RMK A01 T02300167  RH  068%=      5-min Rain = 0
KCO2 201057Z 17005KT 23/17 A3006 RMK A01 T02300167  RH  068%=      5-min Rain = 0
KCO2 201058Z 17005KT 23/17 A3006 RMK A01 T02290167  RH  068%=      5-min Rain = 0
KCO2 201059Z 17005KT 23/17 A3006 RMK A01 T02280167  RH  069%=      5-min Rain = 0
KCO2 201100Z 17005KT 23/17 A3006 RMK A01 T02270167  RH  069%=      5-min Rain = 0
KCO2 201101Z 17005KT 23/17 A3006 RMK A01 T02270167  RH  069%=      5-min Rain = 0
KCO2 201102Z 17004KT 23/17 A3006 RMK A01 T02260168  RH  069%=      5-min Rain = 0
KCO2 201103Z 17004KT 23/17 A3006 RMK A01 T02260167  RH  069%=      5-min Rain = 0
KCO2 201104Z 17004KT 23/17 A3006 RMK A01 T02260168  RH  070%=      5-min Rain = 0
KCO2 201105Z 17004KT 23/17 A3006 RMK A01 T02260168  RH  070%=      5-min Rain = 0
KCO2 201106Z 17004KT 23/17 A3006 RMK A01 T02270168  RH  070%=      5-min Rain = 0
KCO2 201107Z 17004KT 23/17 A3006 RMK A01 T02260168  RH  069%=      5-min Rain = 0
KCO2 201108Z 18003KT 23/17 A3006 RMK A01 T02270168  RH  069%=      5-min Rain = 0
KCO2 201109Z 17003KT 23/17 A3006 RMK A01 T02270168  RH  069%=      5-min Rain = 0
KCO2 201110Z 17003KT 23/17 A3006 RMK A01 T02270168  RH  069%=      5-min Rain = 0
KCO2 201111Z 17003KT 23/17 A3006 RMK A01 T02270168  RH  069%=      5-min Rain = 0
KCO2 201112Z 18003KT 23/17 A3006 RMK A01 T02270168  RH  069%=      5-min Rain = 0
KCO2 201113Z 18003KT 23/17 A3006 RMK A01 T02280168  RH  069%=      5-min Rain = 0
KCO2 201114Z 18002KT 23/17 A3006 RMK A01 T02280169  RH  069%=      5-min Rain = 0
KCO2 201115Z 19002KT 23/17 A3006 RMK A01 T02280169  RH  069%=      5-min Rain = 0
KCO2 201116Z 19002KT 23/17 A3006 RMK A01 T02290169  RH  069%=      5-min Rain = 0
KCO2 201117Z 20002KT 23/17 A3006 RMK A01 T02290169  RH  069%=      5-min Rain = 0
KCO2 201118Z 20002KT 23/17 A3006 RMK A01 T02290168  RH  069%=      5-min Rain = 0
KCO2 201119Z 20002KT 23/17 A3006 RMK A01 T02290169  RH  069%=      5-min Rain = 0
KCO2 201120Z 20002KT 23/17 A3006 RMK A01 T02290169  RH  069%=      5-min Rain = 0
KCO2 201121Z 20002KT 23/17 A3006 RMK A01 T02300169  RH  069%=      5-min Rain = 0
KCO2 201122Z 20003KT 23/17 A3006 RMK A01 T02300169  RH  069%=      5-min Rain = 0
KCO2 201123Z 20003KT 23/17 A3006 RMK A01 T02300169  RH  068%=      5-min Rain = 0
KCO2 201124Z 20003KT 23/17 A3006 RMK A01 T02310169  RH  068%=      5-min Rain = 0
KCO2 201125Z 20003KT 23/17 A3006 RMK A01 T02310169  RH  068%=      5-min Rain = 0
KCO2 201126Z 20002KT 23/17 A3006 RMK A01 T02320169  RH  068%=      5-min Rain = 0
KCO2 201127Z 21002KT 23/17 A3006 RMK A01 T02320170  RH  068%=      5-min Rain = 0
KCO2 201128Z 21002KT 23/17 A3006 RMK A01 T02320169  RH  068%=      5-min Rain = 0
KCO2 201129Z 20003KT 23/17 A3006 RMK A01 T02320169  RH  068%=      5-min Rain = 0
KCO2 201130Z 20002KT 23/17 A3006 RMK A01 T02330169  RH  068%=      5-min Rain = 0
KCO2 201131Z 20002KT 23/17 A3006 RMK A01 T02320169  RH  068%=      5-min Rain = 0
KCO2 201132Z 21002KT 23/17 A3006 RMK A01 T02320169  RH  068%=      5-min Rain = 0
KCO2 201133Z 21002KT 23/17 A3007 RMK A01 T02320168  RH  067%=      5-min Rain = 0
KCO2 201134Z 21002KT 23/17 A3007 RMK A01 T02310166  RH  067%=      5-min Rain = 0
KCO2 201135Z 21001KT 23/17 A3007 RMK A01 T02310168  RH  068%=      5-min Rain = 0
KCO2 201136Z 20001KT 23/17 A3007 RMK A01 T02310169  RH  068%=      5-min Rain = 0
KCO2 201137Z 19001KT 23/17 A3007 RMK A01 T02310169  RH  068%=      5-min Rain = 0
KCO2 201138Z 19001KT 23/17 A3007 RMK A01 T02310168  RH  067%=      5-min Rain = 0
KCO2 201139Z 19001KT 23/17 A3007 RMK A01 T02320165  RH  066%=      5-min Rain = 0
KCO2 201140Z 19001KT 23/17 A3007 RMK A01 T02310166  RH  067%=      5-min Rain = 0
KCO2 201141Z 19001KT 23/17 A3007 RMK A01 T02300166  RH  067%=      5-min Rain = 0
KCO2 201142Z 18001KT 23/17 A3007 RMK A01 T02300166  RH  067%=      5-min Rain = 0
KCO2 201143Z 18001KT 23/17 A3007 RMK A01 T02300167  RH  068%=      5-min Rain = 0
KCO2 201144Z 17001KT 23/17 A3007 RMK A01 T02290166  RH  068%=      5-min Rain = 0
KCO2 201145Z 18001KT 23/17 A3007 RMK A01 T02290166  RH  068%=      5-min Rain = 0
KCO2 201146Z 17002KT 23/17 A3007 RMK A01 T02280167  RH  068%=      5-min Rain = 0
KCO2 201147Z 18002KT 23/17 A3007 RMK A01 T02280167  RH  068%=      5-min Rain = 0
KCO2 201148Z 18002KT 23/17 A3007 RMK A01 T02280167  RH  068%=      5-min Rain = 0
KCO2 201149Z 18002KT 23/17 A3007 RMK A01 T02280167  RH  068%=      5-min Rain = 0
KCO2 201150Z 19002KT 23/17 A3007 RMK A01 T02290168  RH  069%=      5-min Rain = 0
KCO2 201151Z 19003KT 23/17 A3007 RMK A01 T02290169  RH  069%=      5-min Rain = 0
KCO2 201152Z 18003KT 23/17 A3007 RMK A01 T02290169  RH  069%=      5-min Rain = 0
KCO2 201153Z 18003KT 23/17 A3007 RMK A01 T02300169  RH  068%=      5-min Rain = 0
KCO2 201154Z 17003KT 23/17 A3007 RMK A01 T02310169  RH  068%=      5-min Rain = 0
KCO2 201155Z 17003KT 23/17 A3007 RMK A01 T02320169  RH  067%=      5-min Rain = 0
KCO2 201156Z 17004KT 23/17 A3007 RMK A01 T02340169  RH  067%=      5-min Rain = 0
KCO2 201157Z 16003KT 23/17 A3007 RMK A01 T02340169  RH  067%=      5-min Rain = 0
KCO2 201158Z 16004KT 24/17 A3007 RMK A01 T02350169  RH  067%=      5-min Rain = 0
KCO2 201159Z 16003KT 24/17 A3007 RMK A01 T02350169  RH  067%=      5-min Rain = 0
KCO2 201200Z 16003KT 24/17 A3007 RMK A01 T02350169  RH  067%=      5-min Rain = 0
KCO2 201201Z 16003KT 24/17 A3007 RMK A01 T02350169  RH  067%=      5-min Rain = 0
KCO2 201202Z 16003KT 23/17 A3007 RMK A01 T02340169  RH  067%=      5-min Rain = 0
KCO2 201203Z 16003KT 23/17 A3007 RMK A01 T02330169  RH  067%=      5-min Rain = 0
KCO2 201204Z 16003KT 23/17 A3007 RMK A01 T02330169  RH  067%=      5-min Rain = 0
KCO2 201205Z 16003KT 23/17 A3007 RMK A01 T02330169  RH  067%=      5-min Rain = 0
KCO2 201206Z 16003KT 23/17 A3007 RMK A01 T02330169  RH  067%=      5-min Rain = 0
KCO2 201207Z 15003KT 23/17 A3007 RMK A01 T02330169  RH  067%=      5-min Rain = 0
KCO2 201208Z 15003KT 23/17 A3007 RMK A01 T02330169  RH  067%=      5-min Rain = 0
KCO2 201209Z 15003KT 23/17 A3007 RMK A01 T02320169  RH  068%=      5-min Rain = 0
KCO2 201210Z 15003KT 23/17 A3007 RMK A01 T02320169  RH  068%=      5-min Rain = 0
KCO2 201211Z 15004KT 23/17 A3007 RMK A01 T02320169  RH  068%=      5-min Rain = 0
KCO2 201212Z 15004KT 23/17 A3008 RMK A01 T02320169  RH  068%=      5-min Rain = 0
KCO2 201213Z 15005KT 23/17 A3008 RMK A01 T02300168  RH  068%=      5-min Rain = 0
KCO2 201214Z 15005KT 23/17 A3008 RMK A01 T02280169  RH  069%=      5-min Rain = 0
KCO2 201215Z 15006KT 23/17 A3008 RMK A01 T02260168  RH  070%=      5-min Rain = 0
KCO2 201216Z 15005KT 23/17 A3008 RMK A01 T02250169  RH  071%=      5-min Rain = 0
KCO2 201217Z 15005KT 22/17 A3008 RMK A01 T02240169  RH  071%=      5-min Rain = 0
KCO2 201218Z 15004KT 22/17 A3008 RMK A01 T02230169  RH  072%=      5-min Rain = 0
KCO2 201219Z 15004KT 22/17 A3008 RMK A01 T02230170  RH  072%=      5-min Rain = 0
KCO2 201220Z 14004KT 22/17 A3008 RMK A01 T02230169  RH  072%=      5-min Rain = 0
KCO2 201221Z 14004KT 22/17 A3008 RMK A01 T02220169  RH  072%=      5-min Rain = 0
KCO2 201222Z 14005KT 22/17 A3008 RMK A01 T02230169  RH  072%=      5-min Rain = 0
KCO2 201223Z 13005KT 22/17 A3008 RMK A01 T02230169  RH  071%=      5-min Rain = 0
KCO2 201224Z 13005KT 22/17 A3008 RMK A01 T02240169  RH  071%=      5-min Rain = 0
KCO2 201225Z 13005KT 23/17 A3008 RMK A01 T02250170  RH  071%=      5-min Rain = 0
KCO2 201226Z 13005KT 23/17 A3008 RMK A01 T02260170  RH  071%=      5-min Rain = 0
KCO2 201227Z 12006KT 23/17 A3008 RMK A01 T02250169  RH  071%=      5-min Rain = 0
KCO2 201228Z 12006KT 23/17 A3008 RMK A01 T02260170  RH  071%=      5-min Rain = 0
KCO2 201229Z 12006KT 23/17 A3008 RMK A01 T02260171  RH  071%=      5-min Rain = 0
KCO2 201230Z 12006KT 23/17 A3008 RMK A01 T02270171  RH  071%=      5-min Rain = 0
KCO2 201231Z 12006KT 23/17 A3008 RMK A01 T02270171  RH  071%=      5-min Rain = 0
KCO2 201232Z 12006KT 23/17 A3008 RMK A01 T02280172  RH  071%=      5-min Rain = 0
KCO2 201233Z 12006KT 23/17 A3008 RMK A01 T02280172  RH  071%=      5-min Rain = 0
KCO2 201234Z 12006KT 23/17 A3008 RMK A01 T02290173  RH  071%=      5-min Rain = 0
KCO2 201235Z 13006KT 23/17 A3008 RMK A01 T02290173  RH  070%=      5-min Rain = 0
KCO2 201236Z 13006KT 23/17 A3008 RMK A01 T02300173  RH  070%=      5-min Rain = 0
KCO2 201237Z 13006KT 23/17 A3008 RMK A01 T02300173  RH  070%=      5-min Rain = 0
KCO2 201238Z 13006KT 23/17 A3008 RMK A01 T02310174  RH  070%=      5-min Rain = 0
KCO2 201239Z 13006KT 23/17 A3008 RMK A01 T02310174  RH  070%=      5-min Rain = 0
KCO2 201240Z 12006KT 23/17 A3008 RMK A01 T02320174  RH  070%=      5-min Rain = 0
KCO2 201241Z 13006KT 23/17 A3008 RMK A01 T02330174  RH  070%=      5-min Rain = 0
KCO2 201242Z 12006KT 23/17 A3008 RMK A01 T02330174  RH  069%=      5-min Rain = 0
KCO2 201243Z 12006KT 23/18 A3008 RMK A01 T02340175  RH  069%=      5-min Rain = 0
KCO2 201244Z 12006KT 23/18 A3008 RMK A01 T02340175  RH  069%=      5-min Rain = 0
KCO2 201245Z 12006KT 24/18 A3008 RMK A01 T02350175  RH  069%=      5-min Rain = 0
KCO2 201246Z 12006KT 24/18 A3008 RMK A01 T02350175  RH  069%=      5-min Rain = 0
KCO2 201247Z 12006KT 24/18 A3008 RMK A01 T02360175  RH  069%=      5-min Rain = 0
KCO2 201248Z 12005KT 24/18 A3008 RMK A01 T02360176  RH  069%=      5-min Rain = 0
KCO2 201249Z 12005KT 24/18 A3008 RMK A01 T02370176  RH  069%=      5-min Rain = 0
KCO2 201250Z 13005KT 24/18 A3008 RMK A01 T02370176  RH  068%=      5-min Rain = 0
KCO2 201251Z 13005KT 24/18 A3008 RMK A01 T02380176  RH  068%=      5-min Rain = 0
KCO2 201252Z 13005KT 24/18 A3008 RMK A01 T02380176  RH  068%=      5-min Rain = 0
KCO2 201253Z 14005KT 24/18 A3008 RMK A01 T02390177  RH  068%=      5-min Rain = 0
KCO2 201254Z 14005KT 24/18 A3008 RMK A01 T02400177  RH  068%=      5-min Rain = 0
KCO2 201255Z 14005KT 24/18 A3008 RMK A01 T02410177  RH  068%=      5-min Rain = 0
KCO2 201256Z 14005KT 24/18 A3008 RMK A01 T02410178  RH  068%=      5-min Rain = 0
KCO2 201257Z 14005KT 24/18 A3008 RMK A01 T02420178  RH  067%=      5-min Rain = 0
KCO2 201258Z 14004KT 24/18 A3008 RMK A01 T02420178  RH  067%=      5-min Rain = 0
KCO2 201259Z 14004KT 24/18 A3008 RMK A01 T02430178  RH  067%=      5-min Rain = 0
KCO2 201300Z 14004KT 24/18 A3008 RMK A01 T02440179  RH  067%=      5-min Rain = 0
KCO2 201301Z 14004KT 25/18 A3008 RMK A01 T02450179  RH  067%=      5-min Rain = 0
KCO2 201302Z 14004KT 25/18 A3008 RMK A01 T02460180  RH  067%=      5-min Rain = 0
KCO2 201303Z 14004KT 25/18 A3008 RMK A01 T02470180  RH  066%=      5-min Rain = 0
KCO2 201304Z 14003KT 25/18 A3008 RMK A01 T02470180  RH  066%=      5-min Rain = 0
KCO2 201305Z 14004KT 25/18 A3008 RMK A01 T02480180  RH  066%=      5-min Rain = 0
KCO2 201306Z 14004KT 25/18 A3008 RMK A01 T02490181  RH  066%=      5-min Rain = 0
KCO2 201307Z 14004KT 25/18 A3008 RMK A01 T02500181  RH  065%=      5-min Rain = 0
KCO2 201308Z 14004KT 25/18 A3008 RMK A01 T02510181  RH  065%=      5-min Rain = 0
KCO2 201309Z 15004KT 25/18 A3008 RMK A01 T02520180  RH  064%=      5-min Rain = 0
KCO2 201310Z 15003KT 25/18 A3008 RMK A01 T02530181  RH  064%=      5-min Rain = 0
KCO2 201311Z 15003KT 25/18 A3008 RMK A01 T02530180  RH  064%=      5-min Rain = 0
KCO2 201312Z 16003KT 25/18 A3008 RMK A01 T02540181  RH  064%=      5-min Rain = 0
KCO2 201313Z 16004KT 25/18 A3008 RMK A01 T02540180  RH  064%=      5-min Rain = 0
KCO2 201314Z 16004KT 26/18 A3008 RMK A01 T02550181  RH  064%=      5-min Rain = 0
KCO2 201315Z 16003KT 26/18 A3008 RMK A01 T02560181  RH  063%=      5-min Rain = 0
KCO2 201316Z 17003KT 26/18 A3008 RMK A01 T02570181  RH  063%=      5-min Rain = 0
KCO2 201317Z 16003KT 26/18 A3008 RMK A01 T02570182  RH  063%=      5-min Rain = 0
KCO2 201318Z 16003KT 26/18 A3008 RMK A01 T02580182  RH  063%=      5-min Rain = 0
KCO2 201319Z 16005KT 26/18 A3008 RMK A01 T02590182  RH  062%=      5-min Rain = 0
KCO2 201320Z 16004KT 26/18 A3008 RMK A01 T02600182  RH  062%=      5-min Rain = 0
KCO2 201321Z 15004KT 26/18 A3008 RMK A01 T02610182  RH  062%=      5-min Rain = 0
KCO2 201322Z 14004KT 26/18 A3008 RMK A01 T02620182  RH  061%=      5-min Rain = 0
KCO2 201323Z 15004KT 26/18 A3008 RMK A01 T02620182  RH  061%=      5-min Rain = 0
KCO2 201324Z 14004KT 26/18 A3008 RMK A01 T02620182  RH  061%=      5-min Rain = 0
KCO2 201325Z 15004KT 26/18 A3008 RMK A01 T02630183  RH  061%=      5-min Rain = 0
KCO2 201326Z 14004KT 26/18 A3008 RMK A01 T02630182  RH  061%=      5-min Rain = 0
KCO2 201327Z 15003KT 26/18 A3008 RMK A01 T02640183  RH  061%=      5-min Rain = 0
KCO2 201328Z 15003KT 26/18 A3008 RMK A01 T02640184  RH  061%=      5-min Rain = 0
KCO2 201329Z 14005KT 27/18 A3008 RMK A01 T02650184  RH  061%=      5-min Rain = 0
KCO2 201330Z 15004KT 27/18 A3008 RMK A01 T02660183  RH  060%=      5-min Rain = 0
KCO2 201331Z 14004KT 27/18 A3008 RMK A01 T02660184  RH  060%=      5-min Rain = 0
KCO2 201332Z 15004KT 27/18 A3008 RMK A01 T02660183  RH  060%=      5-min Rain = 0
KCO2 201333Z 15004KT 27/18 A3008 RMK A01 T02660183  RH  060%=      5-min Rain = 0
KCO2 201334Z 14003KT 27/18 A3008 RMK A01 T02660183  RH  060%=      5-min Rain = 0
KCO2 201335Z 15004KT 27/18 A3008 RMK A01 T02660184  RH  061%=      5-min Rain = 0
KCO2 201336Z 15004KT 27/19 A3008 RMK A01 T02670185  RH  061%=      5-min Rain = 0
KCO2 201337Z 16003KT 27/19 A3008 RMK A01 T02680185  RH  060%=      5-min Rain = 0
KCO2 201338Z 15003KT 27/19 A3008 RMK A01 T02700186  RH  060%=      5-min Rain = 0
KCO2 201339Z 15003KT 27/19 A3008 RMK A01 T02710185  RH  060%=      5-min Rain = 0
KCO2 201340Z 15004KT 27/19 A3008 RMK A01 T02720187  RH  060%=      5-min Rain = 0
KCO2 201341Z 17005KT 27/19 A3008 RMK A01 T02720186  RH  059%=      5-min Rain = 0
KCO2 201342Z 18006KT 27/19 A3008 RMK A01 T02730188  RH  060%=      5-min Rain = 0
KCO2 201343Z 18008KT 27/19 A3008 RMK A01 T02740191  RH  060%=      5-min Rain = 0
KCO2 201344Z 19008KT 28/19 A3008 RMK A01 T02750191  RH  060%=      5-min Rain = 0
KCO2 201345Z 18006KT 28/19 A3008 RMK A01 T02760192  RH  060%=      5-min Rain = 0
KCO2 201346Z 18007KT 28/19 A3008 RMK A01 T02770192  RH  060%=      5-min Rain = 0
KCO2 201347Z 18006KT 28/19 A3008 RMK A01 T02780193  RH  060%=      5-min Rain = 0
KCO2 201348Z 18008KT 28/19 A3008 RMK A01 T02780193  RH  060%=      5-min Rain = 0
KCO2 201349Z 19006KT 28/19 A3008 RMK A01 T02780193  RH  060%=      5-min Rain = 0
KCO2 201350Z 18006KT 28/19 A3008 RMK A01 T02770193  RH  060%=      5-min Rain = 0
KCO2 201351Z 19006KT 28/19 A3008 RMK A01 T02790194  RH  060%=      5-min Rain = 0
KCO2 201352Z 19007KT 28/19 A3008 RMK A01 T02790193  RH  059%=      5-min Rain = 0
KCO2 201353Z 18008KT 28/19 A3008 RMK A01 T02790194  RH  060%=      5-min Rain = 0
KCO2 201354Z 19009KT 28/19 A3008 RMK A01 T02790194  RH  060%=      5-min Rain = 0
KCO2 201355Z 20009KT 28/19 A3008 RMK A01 T02790194  RH  060%=      5-min Rain = 0
KCO2 201356Z 19007KT 28/20 A3008 RMK A01 T02800195  RH  060%=      5-min Rain = 0
KCO2 201357Z 19008KT 28/20 A3008 RMK A01 T02800195  RH  060%=      5-min Rain = 0
KCO2 201358Z 19008KT 28/20 A3008 RMK A01 T02810195  RH  060%=      5-min Rain = 0
KCO2 201359Z 19007KT 28/19 A3008 RMK A01 T02800194  RH  060%=      5-min Rain = 0
KCO2 201400Z 18008KT 28/20 A3008 RMK A01 T02800195  RH  060%=      5-min Rain = 0
KCO2 201401Z 19007KT 28/20 A3008 RMK A01 T02810196  RH  060%=      5-min Rain = 0
KCO2 201402Z 19008KT 28/20 A3008 RMK A01 T02820196  RH  060%=      5-min Rain = 0
KCO2 201403Z 19009KT 28/20 A3008 RMK A01 T02820195  RH  059%=      5-min Rain = 0
KCO2 201404Z 19009KT 28/20 A3008 RMK A01 T02810195  RH  060%=      5-min Rain = 0
KCO2 201405Z 19009KT 28/20 A3008 RMK A01 T02800195  RH  060%=      5-min Rain = 0
KCO2 201406Z 19009KT 28/20 A3008 RMK A01 T02800196  RH  060%=      5-min Rain = 0
KCO2 201407Z 18009KT 28/20 A3008 RMK A01 T02790196  RH  060%=      5-min Rain = 0
KCO2 201408Z 18008KT 28/20 A3008 RMK A01 T02790196  RH  060%=      5-min Rain = 0
KCO2 201409Z 18009KT 28/20 A3008 RMK A01 T02800197  RH  060%=      5-min Rain = 0
KCO2 201410Z 19008KT 28/20 A3008 RMK A01 T02820196  RH  060%=      5-min Rain = 0
KCO2 201411Z 19007KT 28/20 A3008 RMK A01 T02830197  RH  060%=      5-min Rain = 0
KCO2 201412Z 19009KT 28/20 A3008 RMK A01 T02830196  RH  059%=      5-min Rain = 0
KCO2 201413Z 18009KT 28/20 A3008 RMK A01 T02840197  RH  059%=      5-min Rain = 0
KCO2 201414Z 18007KT 28/20 A3008 RMK A01 T02830196  RH  059%=      5-min Rain = 0
KCO2 201415Z 19008KT 28/20 A3008 RMK A01 T02840197  RH  059%=      5-min Rain = 0
KCO2 201416Z 20007KT 29/20 A3008 RMK A01 T02850197  RH  059%=      5-min Rain = 0
KCO2 201417Z 21008KT 29/20 A3008 RMK A01 T02860197  RH  059%=      5-min Rain = 0
KCO2 201418Z 19010KT 29/20 A3008 RMK A01 T02850198  RH  059%=      5-min Rain = 0
KCO2 201419Z 20009KT 29/20 A3008 RMK A01 T02860197  RH  059%=      5-min Rain = 0
KCO2 201420Z 18010KT 29/20 A3008 RMK A01 T02860197  RH  059%=      5-min Rain = 0
KCO2 201421Z 20010KT 29/20 A3008 RMK A01 T02860197  RH  059%=      5-min Rain = 0
KCO2 201422Z 20010KT 29/20 A3008 RMK A01 T02860197  RH  059%=      5-min Rain = 0
KCO2 201423Z 20009KT 29/20 A3008 RMK A01 T02870197  RH  058%=      5-min Rain = 0
KCO2 201424Z 20009KT 29/20 A3008 RMK A01 T02870197  RH  058%=      5-min Rain = 0
KCO2 201425Z 21009KT 29/20 A3008 RMK A01 T02870197  RH  058%=      5-min Rain = 0
KCO2 201426Z 21007KT 29/20 A3008 RMK A01 T02880197  RH  058%=      5-min Rain = 0
KCO2 201427Z 21006KT 29/20 A3008 RMK A01 T02880198  RH  058%=      5-min Rain = 0
KCO2 201428Z 21009G14KT 29/20 A3008 RMK A01 T02900198  RH  058%=      5-min Rain = 0
KCO2 201429Z 21010KT 29/20 A3008 RMK A01 T02910198  RH  057%=      5-min Rain = 0
KCO2 201430Z 21008KT 29/20 A3008 RMK A01 T02900198  RH  058%=      5-min Rain = 0
KCO2 201431Z 19008KT 29/20 A3008 RMK A01 T02910198  RH  057%=      5-min Rain = 0
KCO2 201432Z 21008KT 29/20 A3008 RMK A01 T02910198  RH  057%=      5-min Rain = 0
KCO2 201433Z 21007KT 29/20 A3008 RMK A01 T02910199  RH  057%=      5-min Rain = 0
KCO2 201434Z 20007KT 29/20 A3008 RMK A01 T02920199  RH  057%=      5-min Rain = 0
KCO2 201435Z 20010KT 30/20 A3008 RMK A01 T02950199  RH  057%=      5-min Rain = 0
KCO2 201436Z 20010KT 29/20 A3008 RMK A01 T02940198  RH  056%=      5-min Rain = 0
KCO2 201437Z 20011KT 29/20 A3008 RMK A01 T02930198  RH  057%=      5-min Rain = 0
KCO2 201438Z 20010KT 29/20 A3008 RMK A01 T02930198  RH  057%=      5-min Rain = 0
KCO2 201439Z 21009KT 29/20 A3008 RMK A01 T02930198  RH  057%=      5-min Rain = 0
KCO2 201440Z 20008KT 29/20 A3008 RMK A01 T02930198  RH  057%=      5-min Rain = 0
KCO2 201441Z 21009KT 30/20 A3008 RMK A01 T02950199  RH  056%=      5-min Rain = 0
KCO2 201442Z 21008KT 30/20 A3008 RMK A01 T02960198  RH  056%=      5-min Rain = 0
KCO2 201443Z 20007KT 30/20 A3008 RMK A01 T02960199  RH  056%=      5-min Rain = 0
KCO2 201444Z 20008KT 30/20 A3009 RMK A01 T02960198  RH  056%=      5-min Rain = 0
KCO2 201445Z 20009KT 30/20 A3009 RMK A01 T02970199  RH  056%=      5-min Rain = 0
KCO2 201446Z 20010KT 30/20 A3009 RMK A01 T02960198  RH  055%=      5-min Rain = 0
KCO2 201447Z 20010KT 30/20 A3009 RMK A01 T02950198  RH  056%=      5-min Rain = 0
KCO2 201448Z 20007KT 30/20 A3009 RMK A01 T02950198  RH  056%=      5-min Rain = 0
KCO2 201449Z 20008KT 30/20 A3009 RMK A01 T02960198  RH  056%=      5-min Rain = 0
KCO2 201450Z 21009KT 30/20 A3009 RMK A01 T02980199  RH  055%=      5-min Rain = 0
KCO2 201451Z 20007KT 30/20 A3009 RMK A01 T02990198  RH  055%=      5-min Rain = 0
KCO2 201452Z 18006KT 30/20 A3009 RMK A01 T02980199  RH  055%=      5-min Rain = 0
KCO2 201453Z 21006KT 30/20 A3009 RMK A01 T03000200  RH  055%=      5-min Rain = 0
KCO2 201454Z 20007KT 30/20 A3009 RMK A01 T03010200  RH  054%=      5-min Rain = 0
KCO2 201455Z 19007KT 30/20 A3009 RMK A01 T03020199  RH  054%=      5-min Rain = 0
KCO2 201456Z 19006KT 30/20 A3009 RMK A01 T03010200  RH  054%=      5-min Rain = 0
KCO2 201457Z 18008KT 30/20 A3009 RMK A01 T03000199  RH  054%=      5-min Rain = 0
KCO2 201458Z 16007KT 30/20 A3009 RMK A01 T03000199  RH  055%=      5-min Rain = 0
KCO2 201459Z 17007KT 30/20 A3009 RMK A01 T03000199  RH  055%=      5-min Rain = 0
KCO2 201500Z 16006KT 30/20 A3009 RMK A01 T03000198  RH  054%=      5-min Rain = 0
KCO2 201501Z 18006KT 30/20 A3009 RMK A01 T03000199  RH  055%=      5-min Rain = 0
KCO2 201502Z 19006KT 30/20 A3009 RMK A01 T03010199  RH  055%=      5-min Rain = 0
KCO2 201503Z 18005KT 30/20 A3009 RMK A01 T03010199  RH  054%=      5-min Rain = 0
KCO2 201504Z 20005KT 30/20 A3009 RMK A01 T03020200  RH  054%=      5-min Rain = 0
KCO2 201505Z 21009KT 30/20 A3009 RMK A01 T03040200  RH  054%=      5-min Rain = 0
KCO2 201506Z 21008KT 31/20 A3009 RMK A01 T03050199  RH  053%=      5-min Rain = 0
KCO2 201507Z 19009KT 31/20 A3009 RMK A01 T03060200  RH  053%=      5-min Rain = 0
KCO2 201508Z 21009KT 31/20 A3009 RMK A01 T03070199  RH  053%=      5-min Rain = 0
KCO2 201509Z 21007KT 31/20 A3009 RMK A01 T03060199  RH  053%=      5-min Rain = 0
KCO2 201510Z 20007KT 31/20 A3009 RMK A01 T03070200  RH  053%=      5-min Rain = 0
KCO2 201511Z 17007KT 31/20 A3009 RMK A01 T03090200  RH  052%=      5-min Rain = 0
KCO2 201512Z 18006KT 31/20 A3009 RMK A01 T03110201  RH  052%=      5-min Rain = 0
KCO2 201513Z 18009KT 31/20 A3009 RMK A01 T03100200  RH  052%=      5-min Rain = 0
KCO2 201514Z 19009KT 31/20 A3009 RMK A01 T03100199  RH  052%=      5-min Rain = 0
KCO2 201515Z 18007KT 31/20 A3009 RMK A01 T03070198  RH  052%=      5-min Rain = 0
KCO2 201516Z 19009KT 31/20 A3009 RMK A01 T03050199  RH  053%=      5-min Rain = 0
KCO2 201517Z 19010KT 31/20 A3009 RMK A01 T03060198  RH  053%=      5-min Rain = 0
KCO2 201518Z 19009KT 31/20 A3009 RMK A01 T03060198  RH  053%=      5-min Rain = 0
KCO2 201519Z 21006KT 31/20 A3009 RMK A01 T03050199  RH  053%=      5-min Rain = 0
KCO2 201520Z 21007KT 31/20 A3009 RMK A01 T03060200  RH  053%=      5-min Rain = 0
KCO2 201521Z 19009KT 31/20 A3009 RMK A01 T03070199  RH  053%=      5-min Rain = 0
KCO2 201522Z 17010KT 31/20 A3009 RMK A01 T03080200  RH  053%=      5-min Rain = 0
KCO2 201523Z 16010KT 31/20 A3009 RMK A01 T03100200  RH  052%=      5-min Rain = 0
KCO2 201524Z 17010KT 31/20 A3009 RMK A01 T03100200  RH  052%=      5-min Rain = 0
KCO2 201525Z 18011KT 31/20 A3009 RMK A01 T03100200  RH  052%=      5-min Rain = 0
KCO2 201526Z 18009KT 31/20 A3009 RMK A01 T03100200  RH  052%=      5-min Rain = 0
KCO2 201527Z 17009KT 31/20 A3009 RMK A01 T03100201  RH  052%=      5-min Rain = 0
KCO2 201528Z 18008KT 31/20 A3009 RMK A01 T03100200  RH  052%=      5-min Rain = 0
KCO2 201529Z 19010KT 31/20 A3009 RMK A01 T03100201  RH  052%=      5-min Rain = 0
KCO2 201530Z 18009KT 31/20 A3009 RMK A01 T03110201  RH  052%=      5-min Rain = 0
KCO2 201531Z 18008KT 31/20 A3009 RMK A01 T03110202  RH  052%=      5-min Rain = 0
KCO2 201532Z 17009KT 31/20 A3009 RMK A01 T03120201  RH  052%=      5-min Rain = 0
KCO2 201533Z 18010KT 31/20 A3009 RMK A01 T03130202  RH  052%=      5-min Rain = 0
KCO2 201534Z 19009KT 31/20 A3009 RMK A01 T03140202  RH  051%=      5-min Rain = 0
KCO2 201535Z 18006KT 31/20 A3009 RMK A01 T03120202  RH  052%=      5-min Rain = 0
KCO2 201536Z 19007KT 31/20 A3009 RMK A01 T03110203  RH  053%=      5-min Rain = 0
KCO2 201537Z 17009KT 31/20 A3009 RMK A01 T03120203  RH  052%=      5-min Rain = 0
KCO2 201538Z 17009KT 32/20 A3009 RMK A01 T03150204  RH  052%=      5-min Rain = 0
KCO2 201539Z 16008KT 32/20 A3009 RMK A01 T03170204  RH  051%=      5-min Rain = 0
KCO2 201540Z 20008KT 32/20 A3009 RMK A01 T03190203  RH  050%=      5-min Rain = 0
KCO2 201541Z 19007KT 32/20 A3009 RMK A01 T03200203  RH  050%=      5-min Rain = 0
KCO2 201542Z 19009KT 32/20 A3009 RMK A01 T03170202  RH  050%=      5-min Rain = 0
KCO2 201543Z 21008KT 32/20 A3009 RMK A01 T03170202  RH  051%=      5-min Rain = 0
KCO2 201544Z 20009KT 32/20 A3009 RMK A01 T03200203  RH  050%=      5-min Rain = 0
KCO2 201545Z 20008KT 32/20 A3009 RMK A01 T03200202  RH  050%=      5-min Rain = 0
KCO2 201546Z 19007KT 32/20 A3009 RMK A01 T03210203  RH  050%=      5-min Rain = 0
KCO2 201547Z 17007KT 32/20 A3009 RMK A01 T03210202  RH  050%=      5-min Rain = 0
KCO2 201548Z 18009G15KT 32/20 A3009 RMK A01 T03220203  RH  049%=      5-min Rain = 0
KCO2 201549Z 18010KT 32/20 A3009 RMK A01 T03240202  RH  049%=      5-min Rain = 0
KCO2 201550Z 18009KT 32/20 A3009 RMK A01 T03230200  RH  048%=      5-min Rain = 0
KCO2 201551Z 17011KT 32/20 A3009 RMK A01 T03230201  RH  048%=      5-min Rain = 0
KCO2 201552Z 19011KT 33/20 A3009 RMK A01 T03260200  RH  048%=      5-min Rain = 0
KCO2 201553Z 18008KT 32/20 A3009 RMK A01 T03240200  RH  048%=      5-min Rain = 0
KCO2 201554Z 17012KT 32/20 A3009 RMK A01 T03220200  RH  048%=      5-min Rain = 0
KCO2 201555Z 18011KT 32/20 A3009 RMK A01 T03240198  RH  048%=      5-min Rain = 0
KCO2 201556Z 18008KT 32/20 A3009 RMK A01 T03220198  RH  048%=      5-min Rain = 0
KCO2 201557Z 20009KT 32/20 A3009 RMK A01 T03200199  RH  049%=      5-min Rain = 0
KCO2 201558Z 21007KT 32/20 A301 RMK A01 T03210200  RH  049%=      5-min Rain = 0
KCO2 201559Z 17009KT 32/20 A301 RMK A01 T03240201  RH  048%=      5-min Rain = 0
KCO2 201600Z 16009KT 33/20 A301 RMK A01 T03250202  RH  048%=      5-min Rain = 0
KCO2 201601Z 17009G16KT 33/20 A301 RMK A01 T03260202  RH  048%=      5-min Rain = 0
KCO2 201602Z 18012KT 33/20 A301 RMK A01 T03270198  RH  047%=      5-min Rain = 0
KCO2 201603Z 19011KT 33/20 A301 RMK A01 T03280199  RH  047%=      5-min Rain = 0
KCO2 201604Z 19009KT 33/20 A301 RMK A01 T03290200  RH  047%=      5-min Rain = 0
KCO2 201605Z 18010KT 33/20 A301 RMK A01 T03320201  RH  046%=      5-min Rain = 0
KCO2 201606Z 20010KT 33/20 A301 RMK A01 T03300199  RH  046%=      5-min Rain = 0
KCO2 201607Z 19009KT 33/20 A301 RMK A01 T03280197  RH  046%=      5-min Rain = 0
KCO2 201608Z 20005KT 32/20 A301 RMK A01 T03240196  RH  047%=      5-min Rain = 0
KCO2 201609Z 18009KT 32/20 A301 RMK A01 T03230198  RH  048%=      5-min Rain = 0
KCO2 201610Z 18007KT 32/20 A301 RMK A01 T03240199  RH  048%=      5-min Rain = 0
KCO2 201611Z 20007KT 33/20 A301 RMK A01 T03270201  RH  047%=      5-min Rain = 0
KCO2 201612Z 21009KT 33/20 A301 RMK A01 T03290200  RH  047%=      5-min Rain = 0
KCO2 201613Z 19008KT 33/20 A301 RMK A01 T03310200  RH  046%=      5-min Rain = 0
KCO2 201614Z 18011KT 33/20 A301 RMK A01 T03320198  RH  045%=      5-min Rain = 0
KCO2 201615Z 18009KT 33/20 A301 RMK A01 T03340198  RH  045%=      5-min Rain = 0
KCO2 201616Z 17008KT 34/20 A301 RMK A01 T03350196  RH  044%=      5-min Rain = 0
KCO2 201617Z 16006KT 34/19 A301 RMK A01 T03360193  RH  043%=      5-min Rain = 0
KCO2 201618Z 16008G14KT 34/20 A301 RMK A01 T03370196  RH  044%=      5-min Rain = 0
KCO2 201619Z 17009KT 34/20 A301 RMK A01 T03390196  RH  043%=      5-min Rain = 0
KCO2 201620Z 17007KT 34/20 A301 RMK A01 T03400199  RH  044%=      5-min Rain = 0
KCO2 201621Z 17008KT 34/20 A3009 RMK A01 T03410199  RH  043%=      5-min Rain = 0
KCO2 201622Z 18010KT 34/20 A3009 RMK A01 T03400199  RH  044%=      5-min Rain = 0
KCO2 201623Z 18008KT 34/20 A3009 RMK A01 T03390198  RH  043%=      5-min Rain = 0
KCO2 201624Z 17009KT 34/20 A3009 RMK A01 T03390197  RH  043%=      5-min Rain = 0
KCO2 201625Z 16008KT 34/20 A3009 RMK A01 T03370196  RH  043%=      5-min Rain = 0
KCO2 201626Z 18010KT 34/19 A301 RMK A01 T03350194  RH  044%=      5-min Rain = 0
KCO2 201627Z 18012KT 34/19 A301 RMK A01 T03360192  RH  042%=      5-min Rain = 0
KCO2 201628Z 18010KT 34/19 A301 RMK A01 T03370190  RH  042%=      5-min Rain = 0
KCO2 201629Z 18010KT 34/19 A301 RMK A01 T03360191  RH  043%=      5-min Rain = 0
KCO2 201630Z 18007KT 34/19 A301 RMK A01 T03360192  RH  043%=      5-min Rain = 0
KCO2 201631Z 18007KT 34/19 A301 RMK A01 T03350193  RH  043%=      5-min Rain = 0
KCO2 201632Z 17005KT 34/19 A301 RMK A01 T03380194  RH  043%=      5-min Rain = 0
KCO2 201633Z 16005KT 34/19 A301 RMK A01 T03390194  RH  043%=      5-min Rain = 0
KCO2 201634Z 18010KT 34/20 A301 RMK A01 T03390196  RH  043%=      5-min Rain = 0
KCO2 201635Z 18010KT 34/19 A301 RMK A01 T03370194  RH  043%=      5-min Rain = 0
KCO2 201636Z 17007KT 34/19 A301 RMK A01 T03350193  RH  043%=      5-min Rain = 0
KCO2 201637Z 19005KT 34/20 A301 RMK A01 T03370195  RH  043%=      5-min Rain = 0
KCO2 201638Z 17007KT 34/20 A301 RMK A01 T03370196  RH  043%=      5-min Rain = 0
KCO2 201639Z 17009G14KT 34/20 A301 RMK A01 T03380197  RH  044%=      5-min Rain = 0
KCO2 201640Z 18010KT 34/20 A301 RMK A01 T03380198  RH  044%=      5-min Rain = 0
KCO2 201641Z 15008KT 34/20 A301 RMK A01 T03410198  RH  043%=      5-min Rain = 0
KCO2 201642Z 14008KT 34/20 A301 RMK A01 T03440195  RH  042%=      5-min Rain = 0
KCO2 201643Z 14008KT 34/20 A301 RMK A01 T03420195  RH  042%=      5-min Rain = 0
KCO2 201644Z 14007KT 34/20 A3009 RMK A01 T03410195  RH  042%=      5-min Rain = 0
KCO2 201645Z 15011KT 34/20 A301 RMK A01 T03410196  RH  042%=      5-min Rain = 0
KCO2 201646Z 14008KT 34/19 A301 RMK A01 T03420194  RH  042%=      5-min Rain = 0
KCO2 201647Z 15008KT 34/20 A301 RMK A01 T03440195  RH  042%=      5-min Rain = 0
KCO2 201648Z 14009KT 35/19 A301 RMK A01 T03450193  RH  041%=      5-min Rain = 0
KCO2 201649Z 14007KT 34/19 A301 RMK A01 T03410192  RH  042%=      5-min Rain = 0
KCO2 201650Z 17008KT 34/19 A301 RMK A01 T03420194  RH  042%=      5-min Rain = 0
KCO2 201651Z 16011KT 35/19 A301 RMK A01 T03470193  RH  041%=      5-min Rain = 0
KCO2 201652Z 16007KT 35/19 A301 RMK A01 T03460193  RH  041%=      5-min Rain = 0
KCO2 201653Z 16003KT 34/19 A3009 RMK A01 T03430193  RH  041%=      5-min Rain = 0
KCO2 201654Z 12003KT 34/19 A3009 RMK A01 T03400189  RH  041%=      5-min Rain = 0
KCO2 201655Z 15004KT 34/19 A3009 RMK A01 T03370190  RH  042%=      5-min Rain = 0
KCO2 201656Z 20006KT 34/19 A3009 RMK A01 T03380192  RH  042%=      5-min Rain = 0
KCO2 201657Z 16010KT 34/19 A3009 RMK A01 T03390193  RH  042%=      5-min Rain = 0
KCO2 201658Z 16009KT 34/19 A3009 RMK A01 T03410193  RH  042%=      5-min Rain = 0
KCO2 201659Z 18008KT 34/20 A3009 RMK A01 T03440195  RH  042%=      5-min Rain = 0
KCO2 201700Z 20009KT 35/20 A3009 RMK A01 T03460195  RH  041%=      5-min Rain = 0
KCO2 201701Z 20009KT 34/19 A3009 RMK A01 T03440194  RH  041%=      5-min Rain = 0
KCO2 201702Z 18009KT 34/19 A3009 RMK A01 T03430192  RH  041%=      5-min Rain = 0
KCO2 201703Z 19007KT 34/19 A3009 RMK A01 T03440192  RH  041%=      5-min Rain = 0
KCO2 201704Z 18010KT 35/19 A3009 RMK A01 T03460192  RH  041%=      5-min Rain = 0
KCO2 201705Z 16010KT 35/19 A3009 RMK A01 T03480192  RH  040%=      5-min Rain = 0
KCO2 201706Z 16009KT 35/19 A3009 RMK A01 T03470190  RH  040%=      5-min Rain = 0
KCO2 201707Z 15008KT 35/19 A3009 RMK A01 T03450190  RH  040%=      5-min Rain = 0
KCO2 201708Z 15009KT 34/19 A3009 RMK A01 T03440190  RH  040%=      5-min Rain = 0
KCO2 201709Z 17008KT 35/19 A3009 RMK A01 T03450190  RH  040%=      5-min Rain = 0
KCO2 201710Z 18005KT 34/19 A3009 RMK A01 T03440191  RH  041%=      5-min Rain = 0
KCO2 201711Z 19005KT 34/19 A3009 RMK A01 T03420191  RH  041%=      5-min Rain = 0
KCO2 201712Z 19006KT 34/19 A3009 RMK A01 T03420191  RH  041%=      5-min Rain = 0
KCO2 201713Z 17007KT 35/19 A3009 RMK A01 T03450192  RH  041%=      5-min Rain = 0
KCO2 201714Z 18009KT 35/19 A3009 RMK A01 T03470192  RH  040%=      5-min Rain = 0
KCO2 201715Z 16009KT 35/19 A3009 RMK A01 T03510189  RH  039%=      5-min Rain = 0
KCO2 201716Z 15007KT 35/19 A3009 RMK A01 T03530187  RH  038%=      5-min Rain = 0
KCO2 201717Z 13006KT 35/19 A3009 RMK A01 T03510186  RH  038%=      5-min Rain = 0
KCO2 201718Z 14009KT 35/18 A3009 RMK A01 T03500184  RH  037%=      5-min Rain = 0
KCO2 201719Z 17008KT 35/18 A3009 RMK A01 T03500182  RH  037%=      5-min Rain = 0
KCO2 201720Z 15007KT 35/18 A3009 RMK A01 T03540182  RH  036%=      5-min Rain = 0
KCO2 201721Z 16008KT 36/18 A3009 RMK A01 T03560184  RH  036%=      5-min Rain = 0
KCO2 201722Z 17007KT 35/19 A3009 RMK A01 T03540185  RH  037%=      5-min Rain = 0
KCO2 201723Z 17005KT 35/19 A3009 RMK A01 T03500185  RH  038%=      5-min Rain = 0
KCO2 201724Z 17006G13KT 35/18 A3009 RMK A01 T03480184  RH  038%=      5-min Rain = 0
KCO2 201725Z 15007KT 35/18 A3009 RMK A01 T03500183  RH  037%=      5-min Rain = 0
KCO2 201726Z 18008KT 35/18 A3009 RMK A01 T03530177  RH  035%=      5-min Rain = 0
KCO2 201727Z 15007KT 35/18 A3009 RMK A01 T03520176  RH  035%=      5-min Rain = 0
KCO2 201728Z 15007KT 35/18 A3009 RMK A01 T03530182  RH  036%=      5-min Rain = 0
KCO2 201729Z 17008G13KT 36/19 A3009 RMK A01 T03550189  RH  038%=      5-min Rain = 0
KCO2 201730Z 18011KT 36/18 A3009 RMK A01 T03570183  RH  036%=      5-min Rain = 0
KCO2 201731Z 20009KT 36/19 A3009 RMK A01 T03560185  RH  037%=      5-min Rain = 0
KCO2 201732Z 20010KT 36/19 A3009 RMK A01 T03550186  RH  037%=      5-min Rain = 0
KCO2 201733Z 20007KT 35/19 A3009 RMK A01 T03520186  RH  038%=      5-min Rain = 0
KCO2 201734Z 19008KT 35/19 A3009 RMK A01 T03520185  RH  038%=      5-min Rain = 0
KCO2 201735Z 16011KT 35/18 A3009 RMK A01 T03520182  RH  037%=      5-min Rain = 0
KCO2 201736Z 14009KT 36/18 A3009 RMK A01 T03560179  RH  035%=      5-min Rain = 0
KCO2 201737Z 15008KT 36/18 A3009 RMK A01 T03550180  RH  036%=      5-min Rain = 0
KCO2 201738Z 15006KT 35/18 A3009 RMK A01 T03530183  RH  037%=      5-min Rain = 0
KCO2 201739Z 08005KT 35/19 A3009 RMK A01 T03510185  RH  038%=      5-min Rain = 0
KCO2 201740Z 07003KT 35/19 A3009 RMK A01 T03470188  RH  039%=      5-min Rain = 0
KCO2 201741Z 19002KT 35/19 A3009 RMK A01 T03450188  RH  040%=      5-min Rain = 0
KCO2 201742Z 19003KT 35/19 A3009 RMK A01 T03450187  RH  039%=      5-min Rain = 0
KCO2 201743Z 13005G11KT 35/19 A3009 RMK A01 T03450186  RH  039%=      5-min Rain = 0
KCO2 201744Z 14012KT 35/18 A3009 RMK A01 T03470184  RH  038%=      5-min Rain = 0
KCO2 201745Z 14011KT 35/19 A3009 RMK A01 T03520186  RH  038%=      5-min Rain = 0
KCO2 201746Z 14008KT 36/19 A3009 RMK A01 T03560186  RH  037%=      5-min Rain = 0
KCO2 201747Z 11006KT 36/19 A3009 RMK A01 T03550188  RH  038%=      5-min Rain = 0
KCO2 201748Z 12008KT 36/19 A3008 RMK A01 T03560187  RH  037%=      5-min Rain = 0
KCO2 201749Z 14009KT 36/19 A3008 RMK A01 T03550187  RH  037%=      5-min Rain = 0
KCO2 201750Z 18008KT 36/19 A3008 RMK A01 T03560185  RH  037%=      5-min Rain = 0
KCO2 201751Z 16011KT 36/19 A3008 RMK A01 T03570185  RH  036%=      5-min Rain = 0
KCO2 201752Z 16010KT 36/18 A3008 RMK A01 T03560184  RH  036%=      5-min Rain = 0
KCO2 201753Z 16010KT 36/18 A3008 RMK A01 T03570184  RH  036%=      5-min Rain = 0
KCO2 201754Z 16009KT 36/18 A3008 RMK A01 T03580183  RH  036%=      5-min Rain = 0
KCO2 201755Z 15006KT 36/18 A3008 RMK A01 T03570182  RH  036%=      5-min Rain = 0
KCO2 201756Z 17005KT 36/18 A3008 RMK A01 T03560182  RH  036%=      5-min Rain = 0
KCO2 201757Z 17007KT 36/18 A3008 RMK A01 T03570181  RH  035%=      5-min Rain = 0
KCO2 201758Z 15008KT 36/18 A3009 RMK A01 T03580182  RH  035%=      5-min Rain = 0
KCO2 201759Z 13007KT 36/18 A3008 RMK A01 T03580180  RH  035%=      5-min Rain = 0
KCO2 201800Z 13010G15KT 35/18 A3008 RMK A01 T03540180  RH  036%=      5-min Rain = 0
KCO2 201801Z 13012KT 35/18 A3008 RMK A01 T03540180  RH  036%=      5-min Rain = 0
KCO2 201802Z 16008KT 36/18 A3009 RMK A01 T03560182  RH  036%=      5-min Rain = 0
KCO2 201803Z 16009KT 36/18 A3009 RMK A01 T03560184  RH  036%=      5-min Rain = 0
KCO2 201804Z 16009KT 36/19 A3008 RMK A01 T03560186  RH  037%=      5-min Rain = 0
KCO2 201805Z 13009KT 36/18 A3009 RMK A01 T03590183  RH  035%=      5-min Rain = 0
KCO2 201806Z 14011KT 36/18 A3009 RMK A01 T03600181  RH  035%=      5-min Rain = 0
KCO2 201807Z 14008KT 36/18 A3009 RMK A01 T03580182  RH  036%=      5-min Rain = 0
KCO2 201808Z 19008KT 36/18 A3008 RMK A01 T03570181  RH  036%=      5-min Rain = 0
KCO2 201809Z 18005KT 36/18 A3008 RMK A01 T03550181  RH  036%=      5-min Rain = 0
KCO2 201810Z 13011KT 36/18 A3009 RMK A01 T03560182  RH  036%=      5-min Rain = 0
KCO2 201811Z 15009KT 36/18 A3009 RMK A01 T03600182  RH  035%=      5-min Rain = 0
KCO2 201812Z 14009KT 36/18 A3009 RMK A01 T03580183  RH  036%=      5-min Rain = 0
KCO2 201813Z 15007KT 36/18 A3009 RMK A01 T03580183  RH  036%=      5-min Rain = 0
KCO2 201814Z 18007KT 36/18 A3008 RMK A01 T03600182  RH  035%=      5-min Rain = 0
KCO2 201815Z 20008KT 36/18 A3008 RMK A01 T03590181  RH  035%=      5-min Rain = 0
KCO2 201816Z 18006KT 36/18 A3008 RMK A01 T03570181  RH  035%=      5-min Rain = 0
KCO2 201817Z 11005KT 36/18 A3008 RMK A01 T03560180  RH  035%=      5-min Rain = 0
KCO2 201818Z 09007KT 36/18 A3008 RMK A01 T03550183  RH  036%=      5-min Rain = 0
KCO2 201819Z 10008KT 36/18 A3008 RMK A01 T03570183  RH  036%=      5-min Rain = 0
KCO2 201820Z 12010KT 36/18 A3008 RMK A01 T03580182  RH  036%=      5-min Rain = 0
KCO2 201821Z 15009KT 36/18 A3008 RMK A01 T03590184  RH  036%=      5-min Rain = 0
KCO2 201822Z 15010KT 36/18 A3008 RMK A01 T03610182  RH  035%=      5-min Rain = 0
KCO2 201823Z 13008KT 36/18 A3008 RMK A01 T03620183  RH  035%=      5-min Rain = 0
KCO2 201824Z 13006KT 36/18 A3008 RMK A01 T03620181  RH  035%=      5-min Rain = 0
KCO2 201825Z 08008KT 36/18 A3008 RMK A01 T03610182  RH  035%=      5-min Rain = 0
KCO2 201826Z 11007KT 36/18 A3008 RMK A01 T03590183  RH  035%=      5-min Rain = 0
KCO2 201827Z 16009KT 36/18 A3008 RMK A01 T03590180  RH  035%=      5-min Rain = 0
KCO2 201828Z 16008KT 36/18 A3008 RMK A01 T03610178  RH  034%=      5-min Rain = 0
KCO2 201829Z 15008KT 36/18 A3008 RMK A01 T03630179  RH  034%=      5-min Rain = 0
KCO2 201830Z 18006KT 36/18 A3008 RMK A01 T03630179  RH  034%=      5-min Rain = 0
KCO2 201831Z 18009KT 36/18 A3008 RMK A01 T03600181  RH  035%=      5-min Rain = 0
KCO2 201832Z 17009KT 36/18 A3008 RMK A01 T03610183  RH  035%=      5-min Rain = 0
KCO2 201833Z 17008KT 36/18 A3008 RMK A01 T03630183  RH  035%=      5-min Rain = 0
KCO2 201834Z 17008KT 37/19 A3008 RMK A01 T03650185  RH  035%=      5-min Rain = 0
KCO2 201835Z 18008KT 37/18 A3008 RMK A01 T03670182  RH  034%=      5-min Rain = 0
KCO2 201836Z 18008KT 37/18 A3008 RMK A01 T03700183  RH  033%=      5-min Rain = 0
KCO2 201837Z 15008KT 37/18 A3008 RMK A01 T03700183  RH  033%=      5-min Rain = 0
KCO2 201838Z 16007KT 37/19 A3008 RMK A01 T03660185  RH  035%=      5-min Rain = 0
KCO2 201839Z 13010KT 37/19 A3008 RMK A01 T03670186  RH  034%=      5-min Rain = 0
KCO2 201840Z 12009KT 37/19 A3008 RMK A01 T03680185  RH  034%=      5-min Rain = 0
KCO2 201841Z 12006KT 36/19 A3007 RMK A01 T03640185  RH  035%=      5-min Rain = 0
KCO2 201842Z 13008KT 37/19 A3007 RMK A01 T03650185  RH  035%=      5-min Rain = 0
KCO2 201843Z 12007KT 37/19 A3007 RMK A01 T03680187  RH  035%=      5-min Rain = 0
KCO2 201844Z 15009KT 37/19 A3007 RMK A01 T03690186  RH  034%=      5-min Rain = 0
KCO2 201845Z 18010KT 37/18 A3007 RMK A01 T03700183  RH  033%=      5-min Rain = 0
KCO2 201846Z 14009KT 37/18 A3007 RMK A01 T03700183  RH  033%=      5-min Rain = 0
KCO2 201847Z 13007KT 37/18 A3007 RMK A01 T03690179  RH  033%=      5-min Rain = 0
KCO2 201848Z 12004KT 37/18 A3007 RMK A01 T03650178  RH  033%=      5-min Rain = 0
KCO2 201849Z 09005KT 36/18 A3007 RMK A01 T03620178  RH  034%=      5-min Rain = 0
KCO2 201850Z 07004KT 36/18 A3007 RMK A01 T03570179  RH  035%=      5-min Rain = 0
KCO2 201851Z 09004KT 36/18 A3007 RMK A01 T03550179  RH  035%=      5-min Rain = 0
KCO2 201852Z 15004G9KT 36/18 A3007 RMK A01 T03560179  RH  035%=      5-min Rain = 0
KCO2 201853Z 16008KT 36/18 A3007 RMK A01 T03580181  RH  035%=      5-min Rain = 0
KCO2 201854Z 12008KT 36/18 A3007 RMK A01 T03590182  RH  035%=      5-min Rain = 0
KCO2 201855Z 10012KT 36/18 A3007 RMK A01 T03640182  RH  034%=      5-min Rain = 0
KCO2 201856Z 12010KT 37/18 A3007 RMK A01 T03680183  RH  034%=      5-min Rain = 0
KCO2 201857Z 13012KT 37/18 A3007 RMK A01 T03670183  RH  034%=      5-min Rain = 0
KCO2 201858Z 15009KT 37/18 A3007 RMK A01 T03700179  RH  033%=      5-min Rain = 0
KCO2 201859Z 16011KT 37/18 A3007 RMK A01 T03700176  RH  032%=      5-min Rain = 0
KCO2 201900Z 16008KT 37/18 A3007 RMK A01 T03680175  RH  032%=      5-min Rain = 0
KCO2 201901Z 17006KT 37/17 A3007 RMK A01 T03670174  RH  032%=      5-min Rain = 0
KCO2 201902Z 17009KT 37/18 A3007 RMK A01 T03680175  RH  032%=      5-min Rain = 0
KCO2 201903Z 18007KT 37/18 A3007 RMK A01 T03670177  RH  033%=      5-min Rain = 0
KCO2 201904Z 16009KT 37/18 A3007 RMK A01 T03700182  RH  033%=      5-min Rain = 0
KCO2 201905Z 14007KT 37/18 A3007 RMK A01 T03720184  RH  033%=      5-min Rain = 0
KCO2 201906Z 12007KT 37/19 A3007 RMK A01 T03710185  RH  034%=      5-min Rain = 0
KCO2 201907Z 10008KT 37/19 A3006 RMK A01 T03680185  RH  034%=      5-min Rain = 0
KCO2 201908Z 10006KT 37/19 A3006 RMK A01 T03660185  RH  035%=      5-min Rain = 0
KCO2 201909Z 10007KT 37/19 A3006 RMK A01 T03650185  RH  035%=      5-min Rain = 0
KCO2 201910Z 09005KT 36/19 A3006 RMK A01 T03640186  RH  035%=      5-min Rain = 0
KCO2 201911Z 10004KT 36/19 A3006 RMK A01 T03610186  RH  036%=      5-min Rain = 0
KCO2 201912Z 10005KT 36/19 A3006 RMK A01 T03610186  RH  036%=      5-min Rain = 0
KCO2 201913Z 13008KT 36/19 A3006 RMK A01 T03610186  RH  036%=      5-min Rain = 0
KCO2 201914Z 13007KT 37/19 A3006 RMK A01 T03660187  RH  035%=      5-min Rain = 0
KCO2 201915Z 13007KT 37/19 A3006 RMK A01 T03690186  RH  034%=      5-min Rain = 0
KCO2 201916Z 16009KT 37/19 A3006 RMK A01 T03710186  RH  034%=      5-min Rain = 0
KCO2 201917Z 17012KT 37/18 A3006 RMK A01 T03720181  RH  033%=      5-min Rain = 0
KCO2 201918Z 17006KT 37/18 A3006 RMK A01 T03700181  RH  033%=      5-min Rain = 0
KCO2 201919Z 18009G14KT 37/18 A3006 RMK A01 T03690182  RH  033%=      5-min Rain = 0
KCO2 201920Z 18005KT 37/18 A3006 RMK A01 T03700179  RH  033%=      5-min Rain = 0
KCO2 201921Z 20004KT 37/18 A3006 RMK A01 T03660179  RH  033%=      5-min Rain = 0
KCO2 201922Z 13004KT 37/18 A3006 RMK A01 T03660180  RH  034%=      5-min Rain = 0
KCO2 201923Z 10004KT 37/18 A3006 RMK A01 T03700178  RH  032%=      5-min Rain = 0
KCO2 201924Z 10004KT 37/18 A3006 RMK A01 T03690178  RH  033%=      5-min Rain = 0
KCO2 201925Z 12006KT 37/18 A3006 RMK A01 T03680175  RH  032%=      5-min Rain = 0
KCO2 201926Z 13007KT 37/18 A3006 RMK A01 T03680176  RH  032%=      5-min Rain = 0
KCO2 201927Z 15008KT 37/18 A3006 RMK A01 T03680176  RH  032%=      5-min Rain = 0
KCO2 201928Z 14008KT 37/18 A3006 RMK A01 T03670175  RH  032%=      5-min Rain = 0
KCO2 201929Z 15007KT 37/18 A3006 RMK A01 T03670176  RH  033%=      5-min Rain = 0
KCO2 201930Z 17011KT 37/18 A3006 RMK A01 T03700177  RH  032%=      5-min Rain = 0
KCO2 201931Z 16010KT 37/18 A3006 RMK A01 T03700176  RH  032%=      5-min Rain = 0
KCO2 201932Z 17005KT 37/18 A3006 RMK A01 T03660175  RH  032%=      5-min Rain = 0
KCO2 201933Z 17003KT 36/18 A3006 RMK A01 T03640175  RH  033%=      5-min Rain = 0
KCO2 201934Z 15005KT 36/17 A3006 RMK A01 T03630174  RH  033%=      5-min Rain = 0
KCO2 201935Z 15004KT 36/17 A3006 RMK A01 T03640174  RH  033%=      5-min Rain = 0
KCO2 201936Z 15006G11KT 37/17 A3006 RMK A01 T03650174  RH  033%=      5-min Rain = 0
KCO2 201937Z 19009KT 37/17 A3006 RMK A01 T03700174  RH  032%=      5-min Rain = 0
KCO2 201938Z 16014KT 38/17 A3006 RMK A01 T03770174  RH  030%=      5-min Rain = 0
KCO2 201939Z 16012KT 38/17 A3006 RMK A01 T03780173  RH  030%=      5-min Rain = 0
KCO2 201940Z 17011KT 38/17 A3006 RMK A01 T03760173  RH  031%=      5-min Rain = 0
KCO2 201941Z 18009KT 37/17 A3006 RMK A01 T03740174  RH  031%=      5-min Rain = 0
KCO2 201942Z 16007KT 37/17 A3006 RMK A01 T03710173  RH  031%=      5-min Rain = 0
KCO2 201943Z 16005KT 37/17 A3005 RMK A01 T03710173  RH  031%=      5-min Rain = 0
KCO2 201944Z 20008KT 37/17 A3005 RMK A01 T03740170  RH  030%=      5-min Rain = 0
KCO2 201945Z 20007KT 38/17 A3005 RMK A01 T03750167  RH  029%=      5-min Rain = 0
KCO2 201946Z 17006KT 37/17 A3005 RMK A01 T03730170  RH  030%=      5-min Rain = 0
KCO2 201947Z 14010KT 38/17 A3005 RMK A01 T03750170  RH  030%=      5-min Rain = 0
KCO2 201948Z 15009KT 38/17 A3005 RMK A01 T03760169  RH  030%=      5-min Rain = 0
KCO2 201949Z 15005KT 37/17 A3005 RMK A01 T03730169  RH  030%=      5-min Rain = 0
KCO2 201950Z 13010KT 38/17 A3005 RMK A01 T03750172  RH  030%=      5-min Rain = 0
KCO2 201951Z 10007KT 38/17 A3005 RMK A01 T03750173  RH  030%=      5-min Rain = 0
KCO2 201952Z 10008KT 37/17 A3005 RMK A01 T03740174  RH  031%=      5-min Rain = 0
KCO2 201953Z 15008KT 37/17 A3005 RMK A01 T03740172  RH  031%=      5-min Rain = 0
KCO2 201954Z 15006KT 38/17 A3005 RMK A01 T03780173  RH  030%=      5-min Rain = 0
KCO2 201955Z 15008KT 38/17 A3005 RMK A01 T03790174  RH  030%=      5-min Rain = 0
KCO2 201956Z 16005KT 37/17 A3005 RMK A01 T03740171  RH  030%=      5-min Rain = 0
KCO2 201957Z 11002KT 37/17 A3005 RMK A01 T03670169  RH  031%=      5-min Rain = 0
KCO2 201958Z 16002KT 36/17 A3005 RMK A01 T03630170  RH  032%=      5-min Rain = 0
KCO2 201959Z 16004KT 36/17 A3005 RMK A01 T03600169  RH  032%=      5-min Rain = 0
KCO2 202000Z 16007KT 36/17 A3005 RMK A01 T03600172  RH  033%=      5-min Rain = 0
KCO2 202001Z 16009KT 36/17 A3005 RMK A01 T03630173  RH  033%=      5-min Rain = 0
KCO2 202002Z 16007KT 37/17 A3005 RMK A01 T03670173  RH  032%=      5-min Rain = 0
KCO2 202003Z 17007KT 37/17 A3005 RMK A01 T03700173  RH  031%=      5-min Rain = 0
KCO2 202004Z 16011KT 37/17 A3005 RMK A01 T03740174  RH  031%=      5-min Rain = 0
KCO2 202005Z 15013KT 38/18 A3005 RMK A01 T03780175  RH  030%=      5-min Rain = 0
KCO2 202006Z 15010KT 38/17 A3005 RMK A01 T03800174  RH  030%=      5-min Rain = 0
KCO2 202007Z 14010KT 38/17 A3005 RMK A01 T03800173  RH  030%=      5-min Rain = 0
KCO2 202008Z 15008KT 38/17 A3005 RMK A01 T03780172  RH  030%=      5-min Rain = 0
KCO2 202009Z 16010KT 38/17 A3005 RMK A01 T03770171  RH  030%=      5-min Rain = 0
KCO2 202010Z 14008KT 38/17 A3005 RMK A01 T03760168  RH  030%=      5-min Rain = 0
KCO2 202011Z 15007KT 37/17 A3005 RMK A01 T03740169  RH  030%=      5-min Rain = 0
KCO2 202012Z 14004KT 38/17 A3005 RMK A01 T03760167  RH  029%=      5-min Rain = 0
KCO2 202013Z 15001KT 37/16 A3004 RMK A01 T03740164  RH  029%=      5-min Rain = 0
KCO2 202014Z 14005KT 37/17 A3004 RMK A01 T03710165  RH  030%=      5-min Rain = 0
KCO2 202015Z 15006KT 37/17 A3004 RMK A01 T03710169  RH  030%=      5-min Rain = 0
KCO2 202016Z 18009KT 37/17 A3004 RMK A01 T03710167  RH  030%=      5-min Rain = 0
KCO2 202017Z 16008KT 37/16 A3004 RMK A01 T03740163  RH  029%=      5-min Rain = 0
KCO2 202018Z 19007KT 38/17 A3004 RMK A01 T03750166  RH  029%=      5-min Rain = 0
KCO2 202019Z 17008KT 37/17 A3004 RMK A01 T03730170  RH  030%=      5-min Rain = 0
KCO2 202020Z 18007KT 37/17 A3004 RMK A01 T03740173  RH  031%=      5-min Rain = 0
KCO2 202021Z 22007KT 38/17 A3004 RMK A01 T03750173  RH  031%=      5-min Rain = 0
KCO2 202022Z 19007KT 37/17 A3004 RMK A01 T03740173  RH  031%=      5-min Rain = 0
KCO2 202023Z 17008KT 38/17 A3004 RMK A01 T03750174  RH  031%=      5-min Rain = 0
KCO2 202024Z 16007KT 38/18 A3004 RMK A01 T03770175  RH  031%=      5-min Rain = 0
KCO2 202025Z 15005KT 38/18 A3004 RMK A01 T03780175  RH  030%=      5-min Rain = 0
KCO2 202026Z 13006KT 38/18 A3004 RMK A01 T03800175  RH  030%=      5-min Rain = 0
KCO2 202027Z 16005KT 38/17 A3004 RMK A01 T03780174  RH  030%=      5-min Rain = 0
KCO2 202028Z 11011KT 38/17 A3004 RMK A01 T03780174  RH  030%=      5-min Rain = 0
KCO2 202029Z 12009KT 38/17 A3004 RMK A01 T03780173  RH  030%=      5-min Rain = 0
KCO2 202030Z 13009KT 37/17 A3004 RMK A01 T03710170  RH  031%=      5-min Rain = 0
KCO2 202031Z 11008KT 37/17 A3004 RMK A01 T03650168  RH  031%=      5-min Rain = 0
KCO2 202032Z 09007KT 36/17 A3004 RMK A01 T03620169  RH  032%=      5-min Rain = 0
KCO2 202033Z 10007KT 36/17 A3004 RMK A01 T03610168  RH  032%=      5-min Rain = 0
KCO2 202034Z 12011KT 36/17 A3004 RMK A01 T03620169  RH  032%=      5-min Rain = 0
KCO2 202035Z 12009KT 37/17 A3004 RMK A01 T03690167  RH  030%=      5-min Rain = 0
KCO2 202036Z 11011KT 37/17 A3003 RMK A01 T03730168  RH  030%=      5-min Rain = 0
KCO2 202037Z 12011KT 38/17 A3003 RMK A01 T03780167  RH  029%=      5-min Rain = 0
KCO2 202038Z 13010KT 38/17 A3004 RMK A01 T03800168  RH  029%=      5-min Rain = 0
KCO2 202039Z 11009KT 38/17 A3003 RMK A01 T03800169  RH  029%=      5-min Rain = 0
KCO2 202040Z 11010KT 38/17 A3003 RMK A01 T03790170  RH  029%=      5-min Rain = 0
KCO2 202041Z 11009KT 38/17 A3003 RMK A01 T03780168  RH  029%=      5-min Rain = 0
KCO2 202042Z 10010KT 38/17 A3003 RMK A01 T03790167  RH  029%=      5-min Rain = 0
KCO2 202043Z 10012KT 38/16 A3003 RMK A01 T03790163  RH  028%=      5-min Rain = 0
KCO2 202044Z 11010KT 38/16 A3003 RMK A01 T03800161  RH  028%=      5-min Rain = 0
KCO2 202045Z 11009KT 38/16 A3003 RMK A01 T03790159  RH  027%=      5-min Rain = 0
KCO2 202046Z 11006KT 38/16 A3003 RMK A01 T03770157  RH  027%=      5-min Rain = 0
KCO2 202047Z 13007KT 38/16 A3003 RMK A01 T03760159  RH  028%=      5-min Rain = 0
KCO2 202048Z 13007KT 38/16 A3003 RMK A01 T03770155  RH  027%=      5-min Rain = 0
KCO2 202049Z 13008KT 38/16 A3003 RMK A01 T03760158  RH  028%=      5-min Rain = 0
KCO2 202050Z 15006KT 38/16 A3003 RMK A01 T03780161  RH  028%=      5-min Rain = 0
KCO2 202051Z 13005KT 38/16 A3003 RMK A01 T03780163  RH  028%=      5-min Rain = 0
KCO2 202052Z 12004KT 38/16 A3003 RMK A01 T03760163  RH  029%=      5-min Rain = 0
KCO2 202053Z 18003KT 37/16 A3003 RMK A01 T03730161  RH  029%=      5-min Rain = 0
KCO2 202054Z 17002KT 37/16 A3003 RMK A01 T03700161  RH  029%=      5-min Rain = 0
KCO2 202055Z 15004KT 37/16 A3003 RMK A01 T03700161  RH  029%=      5-min Rain = 0
KCO2 202056Z 15009KT 37/16 A3003 RMK A01 T03720163  RH  029%=      5-min Rain = 0
KCO2 202057Z 16010KT 37/17 A3003 RMK A01 T03720165  RH  030%=      5-min Rain = 0
KCO2 202058Z 14013KT 37/17 A3003 RMK A01 T03690165  RH  030%=      5-min Rain = 0
KCO2 202059Z 13010KT 37/17 A3003 RMK A01 T03650166  RH  031%=      5-min Rain = 0
KCO2 202100Z 14010KT 36/17 A3003 RMK A01 T03640168  RH  031%=      5-min Rain = 0
KCO2 202101Z 14007KT 37/17 A3003 RMK A01 T03650166  RH  031%=      5-min Rain = 0
KCO2 202102Z 11005KT 36/17 A3003 RMK A01 T03630166  RH  031%=      5-min Rain = 0
KCO2 202103Z 12005KT 36/17 A3002 RMK A01 T03610166  RH  031%=      5-min Rain = 0
KCO2 202104Z 17005KT 36/17 A3002 RMK A01 T03600165  RH  032%=      5-min Rain = 0
KCO2 202105Z 18003KT 36/16 A3002 RMK A01 T03590164  RH  032%=      5-min Rain = 0
KCO2 202106Z 18006KT 36/16 A3002 RMK A01 T03580164  RH  032%=      5-min Rain = 0
KCO2 202107Z 17006KT 36/16 A3002 RMK A01 T03600163  RH  031%=      5-min Rain = 0
KCO2 202108Z 15008KT 37/17 A3002 RMK A01 T03650165  RH  031%=      5-min Rain = 0
KCO2 202109Z 18008KT 37/17 A3002 RMK A01 T03680165  RH  030%=      5-min Rain = 0
KCO2 202110Z 15008KT 37/17 A3002 RMK A01 T03720166  RH  030%=      5-min Rain = 0
KCO2 202111Z 14009KT 38/17 A3002 RMK A01 T03750167  RH  029%=      5-min Rain = 0
KCO2 202112Z 13010KT 38/17 A3002 RMK A01 T03770168  RH  029%=      5-min Rain = 0
KCO2 202113Z 13010KT 38/17 A3002 RMK A01 T03780167  RH  029%=      5-min Rain = 0
KCO2 202114Z 11008KT 38/17 A3002 RMK A01 T03790169  RH  029%=      5-min Rain = 0
KCO2 202115Z 12008KT 38/17 A3002 RMK A01 T03810171  RH  029%=      5-min Rain = 0
KCO2 202116Z 09007KT 38/17 A3002 RMK A01 T03830171  RH  029%=      5-min Rain = 0
KCO2 202117Z 08006KT 38/17 A3002 RMK A01 T03800170  RH  029%=      5-min Rain = 0
KCO2 202118Z 10009KT 38/17 A3002 RMK A01 T03770170  RH  030%=      5-min Rain = 0
KCO2 202119Z 10012KT 38/17 A3002 RMK A01 T03770170  RH  030%=      5-min Rain = 0
KCO2 202120Z 11011KT 38/17 A3002 RMK A01 T03790169  RH  029%=      5-min Rain = 0
KCO2 202121Z 11009KT 38/17 A3002 RMK A01 T03780168  RH  029%=      5-min Rain = 0
KCO2 202122Z 11007KT 38/17 A3002 RMK A01 T03760168  RH  029%=      5-min Rain = 0
KCO2 202123Z 10008KT 38/17 A3002 RMK A01 T03780170  RH  030%=      5-min Rain = 0
KCO2 202124Z 11007KT 38/17 A3002 RMK A01 T03800165  RH  028%=      5-min Rain = 0
KCO2 202125Z 09009KT 38/17 A3002 RMK A01 T03790167  RH  029%=      5-min Rain = 0
KCO2 202126Z 08008KT 38/16 A3002 RMK A01 T03780164  RH  028%=      5-min Rain = 0
KCO2 202127Z 09006KT 38/16 A3002 RMK A01 T03770164  RH  029%=      5-min Rain = 0
KCO2 202128Z 12009KT 38/17 A3002 RMK A01 T03770165  RH  029%=      5-min Rain = 0
KCO2 202129Z 12012KT 38/17 A3002 RMK A01 T03790165  RH  028%=      5-min Rain = 0
KCO2 202130Z 13011KT 38/16 A3002 RMK A01 T03810163  RH  028%=      5-min Rain = 0
KCO2 202131Z 12010KT 38/16 A3002 RMK A01 T03790160  RH  028%=      5-min Rain = 0
KCO2 202132Z 12010KT 38/16 A3002 RMK A01 T03750162  RH  029%=      5-min Rain = 0
KCO2 202133Z 12009KT 37/16 A3002 RMK A01 T03730163  RH  029%=      5-min Rain = 0
KCO2 202134Z 14011KT 37/16 A3002 RMK A01 T03740163  RH  029%=      5-min Rain = 0
KCO2 202135Z 14008KT 37/16 A3002 RMK A01 T03740161  RH  029%=      5-min Rain = 0
KCO2 202136Z 11004KT 37/16 A3001 RMK A01 T03720161  RH  029%=      5-min Rain = 0
KCO2 202137Z 11008KT 37/16 A3001 RMK A01 T03700163  RH  029%=      5-min Rain = 0
KCO2 202138Z 12007KT 37/16 A3002 RMK A01 T03710163  RH  029%=      5-min Rain = 0
KCO2 202139Z 12007KT 37/17 A3002 RMK A01 T03740165  RH  029%=      5-min Rain = 0
KCO2 202140Z 14003KT 38/17 A3001 RMK A01 T03750166  RH  029%=      5-min Rain = 0
KCO2 202141Z 15002KT 38/16 A3001 RMK A01 T03760164  RH  029%=      5-min Rain = 0
KCO2 202142Z 14003KT 38/16 A3001 RMK A01 T03760163  RH  029%=      5-min Rain = 0
KCO2 202143Z 12004KT 38/16 A3001 RMK A01 T03750164  RH  029%=      5-min Rain = 0
KCO2 202144Z 14010KT 38/17 A3001 RMK A01 T03760166  RH  029%=      5-min Rain = 0
KCO2 202145Z 14007KT 38/17 A3001 RMK A01 T03790166  RH  029%=      5-min Rain = 0
KCO2 202146Z 15011KT 38/17 A3001 RMK A01 T03790165  RH  028%=      5-min Rain = 0
KCO2 202147Z 15011KT 38/17 A3001 RMK A01 T03790165  RH  029%=      5-min Rain = 0
KCO2 202148Z 15011KT 38/16 A3001 RMK A01 T03790163  RH  028%=      5-min Rain = 0
KCO2 202149Z 15010KT 38/17 A3001 RMK A01 T03800165  RH  028%=      5-min Rain = 0
KCO2 202150Z 14015KT 39/17 A3001 RMK A01 T03850165  RH  028%=      5-min Rain = 0
KCO2 202151Z 14015KT 39/16 A3001 RMK A01 T03850160  RH  027%=      5-min Rain = 0
KCO2 202152Z 14012KT 38/16 A3001 RMK A01 T03830160  RH  027%=      5-min Rain = 0
KCO2 202153Z 15011KT 38/16 A3001 RMK A01 T03810160  RH  027%=      5-min Rain = 0
KCO2 202154Z 15010KT 38/16 A3001 RMK A01 T03800159  RH  027%=      5-min Rain = 0
KCO2 202155Z 14011KT 38/16 A3001 RMK A01 T03800157  RH  027%=      5-min Rain = 0
KCO2 202156Z 14012KT 38/16 A3001 RMK A01 T03800157  RH  027%=      5-min Rain = 0
KCO2 202157Z 15010KT 38/16 A3001 RMK A01 T03790156  RH  027%=      5-min Rain = 0
KCO2 202158Z 14008KT 38/15 A3001 RMK A01 T03790154  RH  027%=      5-min Rain = 0
KCO2 202159Z 13007KT 38/15 A3001 RMK A01 T03780153  RH  026%=      5-min Rain = 0
KCO2 202200Z 14009KT 37/15 A3001 RMK A01 T03730152  RH  027%=      5-min Rain = 0
KCO2 202201Z 14010KT 37/15 A3001 RMK A01 T03720151  RH  027%=      5-min Rain = 0
KCO2 202202Z 18007KT 37/15 A3001 RMK A01 T03720151  RH  027%=      5-min Rain = 0
KCO2 202203Z 20005KT 37/15 A3001 RMK A01 T03710153  RH  028%=      5-min Rain = 0
KCO2 202204Z 16006KT 37/16 A3001 RMK A01 T03730155  RH  028%=      5-min Rain = 0
KCO2 202205Z 11006KT 38/16 A3001 RMK A01 T03770158  RH  027%=      5-min Rain = 0
KCO2 202206Z 12006KT 38/16 A3001 RMK A01 T03800161  RH  028%=      5-min Rain = 0
KCO2 202207Z 16008KT 38/16 A3001 RMK A01 T03810158  RH  027%=      5-min Rain = 0
KCO2 202208Z 13008KT 38/16 A3001 RMK A01 T03840156  RH  026%=      5-min Rain = 0
KCO2 202209Z 14007KT 38/16 A3001 RMK A01 T03840157  RH  026%=      5-min Rain = 0
KCO2 202210Z 14009KT 38/16 A3001 RMK A01 T03840159  RH  027%=      5-min Rain = 0
KCO2 202211Z 18007KT 39/16 A3001 RMK A01 T03860158  RH  026%=      5-min Rain = 0
KCO2 202212Z 11006KT 39/16 A3001 RMK A01 T03870159  RH  026%=      5-min Rain = 0
KCO2 202213Z 14007KT 39/16 A3001 RMK A01 T03850162  RH  027%=      5-min Rain = 0
KCO2 202214Z 16010KT 38/16 A3001 RMK A01 T03840163  RH  027%=      5-min Rain = 0
KCO2 202215Z 17010KT 39/16 A30 RMK A01 T03870162  RH  027%=      5-min Rain = 0
KCO2 202216Z 16009KT 39/16 A30 RMK A01 T03870161  RH  027%=      5-min Rain = 0
KCO2 202217Z 14009KT 38/16 A3001 RMK A01 T03840162  RH  027%=      5-min Rain = 0
KCO2 202218Z 14010KT 39/16 A3001 RMK A01 T03850162  RH  027%=      5-min Rain = 0
KCO2 202219Z 13008KT 38/16 A3001 RMK A01 T03820162  RH  027%=      5-min Rain = 0
KCO2 202220Z 15008KT 38/16 A3001 RMK A01 T03830164  RH  028%=      5-min Rain = 0
KCO2 202221Z 14009KT 39/16 A3001 RMK A01 T03860161  RH  027%=      5-min Rain = 0
KCO2 202222Z 12005KT 38/16 A30 RMK A01 T03830162  RH  027%=      5-min Rain = 0
KCO2 202223Z 11007KT 38/16 A30 RMK A01 T03820162  RH  028%=      5-min Rain = 0
KCO2 202224Z 11006KT 38/16 A30 RMK A01 T03810163  RH  028%=      5-min Rain = 0
KCO2 202225Z 11008KT 38/16 A30 RMK A01 T03810160  RH  027%=      5-min Rain = 0
KCO2 202226Z 12010G15KT 38/16 A30 RMK A01 T03820159  RH  027%=      5-min Rain = 0
KCO2 202227Z 13011KT 39/16 A30 RMK A01 T03850158  RH  026%=      5-min Rain = 0
KCO2 202228Z 13012KT 39/16 A30 RMK A01 T03870157  RH  026%=      5-min Rain = 0
KCO2 202229Z 12010KT 39/16 A30 RMK A01 T03850157  RH  026%=      5-min Rain = 0
KCO2 202230Z 12008KT 38/16 A30 RMK A01 T03820158  RH  027%=      5-min Rain = 0
KCO2 202231Z 11007KT 38/16 A30 RMK A01 T03780157  RH  027%=      5-min Rain = 0
KCO2 202232Z 09008KT 38/15 A30 RMK A01 T03760154  RH  027%=      5-min Rain = 0
KCO2 202233Z 10008KT 38/16 A30 RMK A01 T03770156  RH  027%=      5-min Rain = 0
KCO2 202234Z 11007KT 38/16 A30 RMK A01 T03780158  RH  027%=      5-min Rain = 0
KCO2 202235Z 11007KT 38/16 A30 RMK A01 T03790158  RH  027%=      5-min Rain = 0
KCO2 202236Z 13008KT 38/16 A30 RMK A01 T03800159  RH  027%=      5-min Rain = 0
KCO2 202237Z 14009KT 38/16 A30 RMK A01 T03820158  RH  027%=      5-min Rain = 0
KCO2 202238Z 13007KT 38/16 A30 RMK A01 T03820159  RH  027%=      5-min Rain = 0
KCO2 202239Z 13010KT 38/16 A30 RMK A01 T03800159  RH  027%=      5-min Rain = 0
KCO2 202240Z 12012KT 38/16 A30 RMK A01 T03790163  RH  028%=      5-min Rain = 0
KCO2 202241Z 11015KT 38/16 A30 RMK A01 T03780164  RH  028%=      5-min Rain = 0
KCO2 202242Z 12013KT 38/17 A30 RMK A01 T03780165  RH  029%=      5-min Rain = 0
KCO2 202243Z 14008G13KT 38/16 A30 RMK A01 T03780161  RH  028%=      5-min Rain = 0
KCO2 202244Z 12010KT 38/16 A30 RMK A01 T03780163  RH  028%=      5-min Rain = 0
KCO2 202245Z 11010KT 38/17 A30 RMK A01 T03790166  RH  029%=      5-min Rain = 0
KCO2 202246Z 12011KT 38/17 A30 RMK A01 T03790167  RH  029%=      5-min Rain = 0
KCO2 202247Z 11013KT 38/17 A30 RMK A01 T03790165  RH  028%=      5-min Rain = 0
KCO2 202248Z 10013KT 38/17 A30 RMK A01 T03770165  RH  029%=      5-min Rain = 0
KCO2 202249Z 13012KT 38/16 A30 RMK A01 T03770164  RH  029%=      5-min Rain = 0
KCO2 202250Z 14010KT 38/16 A30 RMK A01 T03780161  RH  028%=      5-min Rain = 0
KCO2 202251Z 13008KT 38/16 A30 RMK A01 T03790160  RH  028%=      5-min Rain = 0
KCO2 202252Z 12009KT 38/16 A30 RMK A01 T03790163  RH  028%=      5-min Rain = 0
KCO2 202253Z 12009KT 38/16 A30 RMK A01 T03780163  RH  028%=      5-min Rain = 0
KCO2 202254Z 14013KT 38/16 A30 RMK A01 T03770162  RH  028%=      5-min Rain = 0
KCO2 202255Z 13010KT 38/16 A30 RMK A01 T03760161  RH  028%=      5-min Rain = 0
KCO2 202256Z 13010KT 38/16 A30 RMK A01 T03760162  RH  028%=      5-min Rain = 0
KCO2 202257Z 13013KT 38/16 A30 RMK A01 T03750161  RH  028%=      5-min Rain = 0
KCO2 202258Z 13012KT 37/16 A30 RMK A01 T03700159  RH  029%=      5-min Rain = 0
KCO2 202259Z 14010KT 37/16 A30 RMK A01 T03650157  RH  029%=      5-min Rain = 0
KCO2 202300Z 14009KT 36/16 A30 RMK A01 T03620157  RH  030%=      5-min Rain = 0
KCO2 202301Z 14009KT 36/16 A30 RMK A01 T03610157  RH  030%=      5-min Rain = 0
KCO2 202302Z 13008KT 36/16 A30 RMK A01 T03630157  RH  030%=      5-min Rain = 0
KCO2 202303Z 11009KT 37/16 A30 RMK A01 T03650159  RH  030%=      5-min Rain = 0
KCO2 202304Z 10009KT 37/16 A30 RMK A01 T03670158  RH  029%=      5-min Rain = 0
KCO2 202305Z 14007KT 37/16 A30 RMK A01 T03670158  RH  029%=      5-min Rain = 0
KCO2 202306Z 12009KT 37/16 A30 RMK A01 T03700159  RH  029%=      5-min Rain = 0
KCO2 202307Z 12012KT 37/16 A30 RMK A01 T03730159  RH  028%=      5-min Rain = 0
KCO2 202308Z 13010G15KT 37/16 A30 RMK A01 T03730159  RH  028%=      5-min Rain = 0
KCO2 202309Z 14010KT 37/16 A30 RMK A01 T03710159  RH  029%=      5-min Rain = 0
KCO2 202310Z 14009KT 37/16 A30 RMK A01 T03710159  RH  029%=      5-min Rain = 0
KCO2 202311Z 12009KT 37/16 A30 RMK A01 T03710159  RH  029%=      5-min Rain = 0
KCO2 202312Z 12010KT 37/16 A30 RMK A01 T03720161  RH  029%=      5-min Rain = 0
KCO2 202313Z 13014KT 37/16 A30 RMK A01 T03710160  RH  029%=      5-min Rain = 0
KCO2 202314Z 12013KT 37/16 A30 RMK A01 T03710159  RH  029%=      5-min Rain = 0
KCO2 202315Z 11011KT 37/16 A30 RMK A01 T03700160  RH  029%=      5-min Rain = 0
KCO2 202316Z 12012KT 37/16 A30 RMK A01 T03690160  RH  029%=      5-min Rain = 0
KCO2 202317Z 14013KT 37/16 A30 RMK A01 T03680159  RH  029%=      5-min Rain = 0
KCO2 202318Z 13012KT 37/16 A30 RMK A01 T03680157  RH  029%=      5-min Rain = 0
KCO2 202319Z 13009KT 37/16 A30 RMK A01 T03680158  RH  029%=      5-min Rain = 0
KCO2 202320Z 14009KT 37/16 A30 RMK A01 T03670158  RH  029%=      5-min Rain = 0
KCO2 202321Z 15009KT 37/16 A30 RMK A01 T03680159  RH  029%=      5-min Rain = 0
KCO2 202322Z 12013KT 37/16 A30 RMK A01 T03700159  RH  029%=      5-min Rain = 0
KCO2 202323Z 10012KT 37/16 A30 RMK A01 T03700159  RH  029%=      5-min Rain = 0
KCO2 202324Z 12010KT 37/16 A30 RMK A01 T03690159  RH  029%=      5-min Rain = 0
KCO2 202325Z 13011KT 37/16 A30 RMK A01 T03690157  RH  028%=      5-min Rain = 0
KCO2 202326Z 14008KT 37/16 A30 RMK A01 T03690155  RH  028%=      5-min Rain = 0
KCO2 202327Z 13008KT 37/16 A30 RMK A01 T03670156  RH  029%=      5-min Rain = 0
KCO2 202328Z 14011KT 37/16 A30 RMK A01 T03670157  RH  029%=      5-min Rain = 0
KCO2 202329Z 13011KT 37/16 A30 RMK A01 T03680156  RH  028%=      5-min Rain = 0
KCO2 202330Z 15008KT 37/16 A30 RMK A01 T03680155  RH  028%=      5-min Rain = 0
KCO2 202331Z 14011KT 37/16 A30 RMK A01 T03680156  RH  029%=      5-min Rain = 0
KCO2 202332Z 11009KT 37/16 A30 RMK A01 T03680156  RH  028%=      5-min Rain = 0
KCO2 202333Z 11010KT 37/16 A30 RMK A01 T03670155  RH  029%=      5-min Rain = 0
KCO2 202334Z 11015KT 37/15 A30 RMK A01 T03670152  RH  028%=      5-min Rain = 0
KCO2 202335Z 12012KT 37/15 A30 RMK A01 T03670151  RH  028%=      5-min Rain = 0
KCO2 202336Z 12014KT 37/15 A30 RMK A01 T03660148  RH  027%=      5-min Rain = 0
KCO2 202337Z 13014KT 37/14 A30 RMK A01 T03660143  RH  026%=      5-min Rain = 0
KCO2 202338Z 13011KT 37/14 A30 RMK A01 T03660144  RH  027%=      5-min Rain = 0
KCO2 202339Z 12010KT 37/15 A30 RMK A01 T03660145  RH  027%=      5-min Rain = 0
KCO2 202340Z 12010KT 37/15 A30 RMK A01 T03670148  RH  027%=      5-min Rain = 0
KCO2 202341Z 12008KT 37/15 A30 RMK A01 T03670150  RH  027%=      5-min Rain = 0
KCO2 202342Z 11010KT 37/15 A30 RMK A01 T03670152  RH  028%=      5-min Rain = 0
KCO2 202343Z 11009KT 37/15 A30 RMK A01 T03670151  RH  028%=      5-min Rain = 0
KCO2 202344Z 12009KT 37/15 A30 RMK A01 T03660152  RH  028%=      5-min Rain = 0
KCO2 202345Z 12010KT 37/15 A30 RMK A01 T03650152  RH  028%=      5-min Rain = 0
KCO2 202346Z 13008KT 37/15 A30 RMK A01 T03650152  RH  028%=      5-min Rain = 0
KCO2 202347Z 15008KT 37/15 A30 RMK A01 T03660152  RH  028%=      5-min Rain = 0
KCO2 202348Z 16009KT 37/15 A2999 RMK A01 T03680151  RH  028%=      5-min Rain = 0
KCO2 202349Z 16009KT 37/15 A2999 RMK A01 T03670152  RH  028%=      5-min Rain = 0
KCO2 202350Z 13009KT 37/15 A2999 RMK A01 T03670152  RH  028%=      5-min Rain = 0
KCO2 202351Z 13008KT 37/15 A2999 RMK A01 T03680151  RH  028%=      5-min Rain = 0
KCO2 202352Z 13010KT 37/15 A2999 RMK A01 T03690148  RH  027%=      5-min Rain = 0
KCO2 202353Z 13010KT 37/15 A2999 RMK A01 T03690147  RH  027%=      5-min Rain = 0
KCO2 202354Z 13009KT 37/15 A2999 RMK A01 T03680147  RH  027%=      5-min Rain = 0
KCO2 202355Z 14008KT 37/15 A2999 RMK A01 T03680148  RH  027%=      5-min Rain = 0
KCO2 202356Z 13011KT 37/15 A2999 RMK A01 T03670148  RH  027%=      5-min Rain = 0
KCO2 202357Z 13011KT 37/15 A2999 RMK A01 T03660147  RH  027%=      5-min Rain = 0
KCO2 202358Z 13009KT 37/15 A2999 RMK A01 T03650148  RH  028%=      5-min Rain = 0
KCO2 202359Z 13009KT 37/15 A2999 RMK A01 T03650150  RH  028%=      5-min Rain = 0
KCO2 210000Z 14008KT 37/15 A2999 RMK A01 T03650150  RH  028%=      5-min Rain = 0
KCO2 210001Z 13010KT 37/15 A2999 RMK A01 T03650151  RH  028%=      5-min Rain = 0
KCO2 210002Z 12009KT 37/15 A2999 RMK A01 T03650150  RH  028%=      5-min Rain = 0
KCO2 210003Z 13007KT 37/15 A2999 RMK A01 T03650150  RH  028%=      5-min Rain = 0
KCO2 210004Z 13009KT 37/15 A2999 RMK A01 T03650149  RH  028%=      5-min Rain = 0
KCO2 210005Z 14011KT 37/15 A2999 RMK A01 T03650150  RH  028%=      5-min Rain = 0
KCO2 210006Z 14011KT 37/15 A2999 RMK A01 T03650149  RH  028%=      5-min Rain = 0
KCO2 210007Z 13011KT 37/15 A30 RMK A01 T03650147  RH  027%=      5-min Rain = 0
KCO2 210008Z 13009KT 36/15 A2999 RMK A01 T03630146  RH  027%=      5-min Rain = 0
KCO2 210009Z 14007KT 36/15 A2999 RMK A01 T03630147  RH  028%=      5-min Rain = 0
KCO2 210010Z 13009KT 36/15 A2999 RMK A01 T03630146  RH  028%=      5-min Rain = 0
KCO2 210011Z 13008KT 36/15 A2999 RMK A01 T03630146  RH  027%=      5-min Rain = 0
KCO2 210012Z 14007KT 36/15 A2999 RMK A01 T03620146  RH  028%=      5-min Rain = 0
KCO2 210013Z 15009KT 36/15 A2999 RMK A01 T03630147  RH  028%=      5-min Rain = 0
KCO2 210014Z 14010KT 36/15 A2999 RMK A01 T03620147  RH  028%=      5-min Rain = 0
KCO2 210015Z 15011KT 36/15 A2999 RMK A01 T03620149  RH  028%=      5-min Rain = 0
KCO2 210016Z 13012KT 36/15 A2999 RMK A01 T03610151  RH  029%=      5-min Rain = 0
KCO2 210017Z 13012KT 36/15 A2999 RMK A01 T03600151  RH  029%=      5-min Rain = 0
KCO2 210018Z 14012KT 36/15 A2999 RMK A01 T03590152  RH  029%=      5-min Rain = 0
KCO2 210019Z 14012KT 36/15 A30 RMK A01 T03590152  RH  029%=      5-min Rain = 0
KCO2 210020Z 13011KT 36/15 A30 RMK A01 T03580151  RH  029%=      5-min Rain = 0
KCO2 210021Z 13011KT 36/15 A30 RMK A01 T03580152  RH  029%=      5-min Rain = 0
KCO2 210022Z 13013KT 36/15 A30 RMK A01 T03570151  RH  029%=      5-min Rain = 0
KCO2 210023Z 12012KT 36/15 A30 RMK A01 T03570151  RH  029%=      5-min Rain = 0
KCO2 210024Z 14008KT 36/15 A30 RMK A01 T03550151  RH  030%=      5-min Rain = 0
KCO2 210025Z 14009KT 36/15 A30 RMK A01 T03550152  RH  030%=      5-min Rain = 0
KCO2 210026Z 14011KT 35/15 A30 RMK A01 T03540150  RH  030%=      5-min Rain = 0
KCO2 210027Z 13009KT 35/15 A30 RMK A01 T03540151  RH  030%=      5-min Rain = 0
KCO2 210028Z 13011KT 35/15 A30 RMK A01 T03540151  RH  030%=      5-min Rain = 0
KCO2 210029Z 13010KT 35/15 A30 RMK A01 T03540150  RH  030%=      5-min Rain = 0
KCO2 210030Z 13007KT 36/15 A30 RMK A01 T03550151  RH  030%=      5-min Rain = 0
KCO2 210031Z 14009KT 36/15 A30 RMK A01 T03550152  RH  030%=      5-min Rain = 0
KCO2 210032Z 14009KT 36/15 A30 RMK A01 T03550152  RH  030%=      5-min Rain = 0
KCO2 210033Z 14010KT 36/15 A30 RMK A01 T03550151  RH  030%=      5-min Rain = 0
KCO2 210034Z 14011KT 36/15 A30 RMK A01 T03550151  RH  030%=      5-min Rain = 0
KCO2 210035Z 14009KT 36/15 A30 RMK A01 T03550152  RH  030%=      5-min Rain = 0
KCO2 210036Z 14010KT 35/15 A30 RMK A01 T03540152  RH  030%=      5-min Rain = 0
KCO2 210037Z 13010KT 35/15 A30 RMK A01 T03540152  RH  030%=      5-min Rain = 0
KCO2 210038Z 14009KT 35/15 A30 RMK A01 T03540151  RH  030%=      5-min Rain = 0
KCO2 210039Z 14010KT 35/15 A30 RMK A01 T03530151  RH  030%=      5-min Rain = 0
KCO2 210040Z 14008KT 35/15 A30 RMK A01 T03530150  RH  030%=      5-min Rain = 0
KCO2 210041Z 14011KT 35/15 A30 RMK A01 T03530149  RH  030%=      5-min Rain = 0
KCO2 210042Z 14010KT 35/15 A30 RMK A01 T03520149  RH  030%=      5-min Rain = 0
KCO2 210043Z 14010KT 35/15 A30 RMK A01 T03520148  RH  030%=      5-min Rain = 0
KCO2 210044Z 14009KT 35/15 A30 RMK A01 T03520148  RH  030%=      5-min Rain = 0
KCO2 210045Z 13008KT 35/15 A30 RMK A01 T03510148  RH  030%=      5-min Rain = 0
KCO2 210046Z 14009KT 35/15 A30 RMK A01 T03510149  RH  030%=      5-min Rain = 0
KCO2 210047Z 14008KT 35/15 A30 RMK A01 T03500148  RH  030%=      5-min Rain = 0
KCO2 210048Z 14009KT 35/15 A30 RMK A01 T03500148  RH  030%=      5-min Rain = 0
KCO2 210049Z 14009KT 35/15 A30 RMK A01 T03490147  RH  030%=      5-min Rain = 0
KCO2 210050Z 14009KT 35/15 A30 RMK A01 T03490147  RH  030%=      5-min Rain = 0
KCO2 210051Z 13007KT 35/15 A30 RMK A01 T03490147  RH  030%=      5-min Rain = 0
KCO2 210052Z 14006KT 35/15 A30 RMK A01 T03480147  RH  030%=      5-min Rain = 0
KCO2 210053Z 13008KT 35/15 A30 RMK A01 T03470147  RH  030%=      5-min Rain = 0
KCO2 210054Z 14008KT 35/15 A30 RMK A01 T03470146  RH  030%=      5-min Rain = 0
KCO2 210055Z 14008KT 35/15 A30 RMK A01 T03460145  RH  030%=      5-min Rain = 0
KCO2 210056Z 14008KT 35/15 A30 RMK A01 T03460145  RH  030%=      5-min Rain = 0
KCO2 210057Z 14007KT 35/15 A30 RMK A01 T03460145  RH  030%=      5-min Rain = 0
KCO2 210058Z 14008KT 35/15 A30 RMK A01 T03450145  RH  030%=      5-min Rain = 0
KCO2 210059Z 14007KT 35/15 A30 RMK A01 T03450145  RH  030%=      5-min Rain = 0
KCO2 210100Z 14007KT 34/15 A30 RMK A01 T03440146  RH  031%=      5-min Rain = 0
KCO2 210101Z 14007KT 34/15 A30 RMK A01 T03430146  RH  031%=      5-min Rain = 0
KCO2 210102Z 14007KT 34/15 A30 RMK A01 T03420147  RH  031%=      5-min Rain = 0
KCO2 210103Z 15006KT 34/15 A30 RMK A01 T03420147  RH  031%=      5-min Rain = 0
KCO2 210104Z 14007KT 34/15 A30 RMK A01 T03410147  RH  031%=      5-min Rain = 0
KCO2 210105Z 14007KT 34/15 A30 RMK A01 T03410148  RH  031%=      5-min Rain = 0
KCO2 210106Z 14007KT 34/15 A3001 RMK A01 T03400148  RH  032%=      5-min Rain = 0
KCO2 210107Z 14006KT 34/15 A3001 RMK A01 T03390148  RH  032%=      5-min Rain = 0
KCO2 210108Z 14006KT 34/15 A3001 RMK A01 T03380149  RH  032%=      5-min Rain = 0
KCO2 210109Z 14007KT 34/15 A3001 RMK A01 T03370149  RH  032%=      5-min Rain = 0
KCO2 210110Z 14007KT 34/15 A3001 RMK A01 T03360149  RH  032%=      5-min Rain = 0
KCO2 210111Z 14008KT 34/15 A3001 RMK A01 T03350149  RH  033%=      5-min Rain = 0
KCO2 210112Z 14007KT 34/15 A3001 RMK A01 T03350149  RH  033%=      5-min Rain = 0
KCO2 210113Z 14007KT 33/15 A3001 RMK A01 T03340148  RH  033%=      5-min Rain = 0
KCO2 210114Z 14006KT 33/15 A3001 RMK A01 T03340149  RH  033%=      5-min Rain = 0
KCO2 210115Z 14007KT 33/15 A3001 RMK A01 T03330149  RH  033%=      5-min Rain = 0
KCO2 210116Z 14007KT 33/15 A3001 RMK A01 T03320148  RH  033%=      5-min Rain = 0
KCO2 210117Z 14007KT 33/15 A3001 RMK A01 T03310148  RH  033%=      5-min Rain = 0
KCO2 210118Z 14006KT 33/15 A3001 RMK A01 T03310149  RH  033%=      5-min Rain = 0
KCO2 210119Z 14006KT 33/15 A3001 RMK A01 T03300149  RH  034%=      5-min Rain = 0
KCO2 210120Z 14006KT 33/15 A3001 RMK A01 T03290149  RH  034%=      5-min Rain = 0
KCO2 210121Z 14005KT 33/15 A3001 RMK A01 T03280149  RH  034%=      5-min Rain = 0
KCO2 210122Z 14005KT 33/15 A3001 RMK A01 T03260149  RH  034%=      5-min Rain = 0
KCO2 210123Z 14005KT 33/15 A3001 RMK A01 T03250149  RH  035%=      5-min Rain = 0
KCO2 210124Z 14005KT 32/15 A3001 RMK A01 T03240149  RH  035%=      5-min Rain = 0
KCO2 210125Z 14006KT 32/15 A3001 RMK A01 T03230149  RH  035%=      5-min Rain = 0
KCO2 210126Z 14006KT 32/15 A3001 RMK A01 T03220149  RH  035%=      5-min Rain = 0
KCO2 210127Z 14007KT 32/15 A3001 RMK A01 T03210149  RH  035%=      5-min Rain = 0
KCO2 210128Z 14007KT 32/15 A3001 RMK A01 T03210148  RH  035%=      5-min Rain = 0
KCO2 210129Z 13006KT 32/15 A3001 RMK A01 T03210148  RH  035%=      5-min Rain = 0
KCO2 210130Z 14006KT 32/15 A3001 RMK A01 T03200148  RH  035%=      5-min Rain = 0
KCO2 210131Z 13006KT 32/15 A3001 RMK A01 T03200148  RH  035%=      5-min Rain = 0
KCO2 210132Z 13006KT 32/15 A3001 RMK A01 T03200148  RH  035%=      5-min Rain = 0
KCO2 210133Z 13006KT 32/15 A3001 RMK A01 T03190148  RH  036%=      5-min Rain = 0
KCO2 210134Z 13006KT 32/15 A3001 RMK A01 T03180148  RH  036%=      5-min Rain = 0
KCO2 210135Z 13006KT 32/15 A3001 RMK A01 T03180148  RH  036%=      5-min Rain = 0
KCO2 210136Z 13006KT 32/15 A3001 RMK A01 T03180148  RH  036%=      5-min Rain = 0
KCO2 210137Z 13006KT 32/15 A3001 RMK A01 T03180148  RH  036%=      5-min Rain = 0
KCO2 210138Z 13006KT 32/15 A3001 RMK A01 T03170148  RH  036%=      5-min Rain = 0
KCO2 210139Z 13006KT 32/15 A3001 RMK A01 T03170148  RH  036%=      5-min Rain = 0
KCO2 210140Z 13006KT 32/15 A3001 RMK A01 T03160148  RH  036%=      5-min Rain = 0
KCO2 210141Z 12005KT 32/15 A3001 RMK A01 T03150148  RH  036%=      5-min Rain = 0
KCO2 210142Z 13005KT 31/15 A3001 RMK A01 T03140148  RH  037%=      5-min Rain = 0
KCO2 210143Z 13005KT 31/15 A3001 RMK A01 T03140149  RH  037%=      5-min Rain = 0
KCO2 210144Z 13005KT 31/15 A3001 RMK A01 T03120149  RH  037%=      5-min Rain = 0
KCO2 210145Z 13005KT 31/15 A3001 RMK A01 T03110149  RH  037%=      5-min Rain = 0
KCO2 210146Z 13005KT 31/15 A3001 RMK A01 T03100149  RH  038%=      5-min Rain = 0
KCO2 210147Z 13005KT 31/15 A3001 RMK A01 T03090149  RH  038%=      5-min Rain = 0
KCO2 210148Z 13006KT 31/15 A3001 RMK A01 T03080148  RH  038%=      5-min Rain = 0
KCO2 210149Z 13006KT 31/15 A3001 RMK A01 T03080149  RH  038%=      5-min Rain = 0
KCO2 210150Z 13006KT 31/15 A3001 RMK A01 T03070149  RH  038%=      5-min Rain = 0
KCO2 210151Z 13005KT 31/15 A3001 RMK A01 T03070148  RH  038%=      5-min Rain = 0
KCO2 210152Z 13005KT 31/15 A3001 RMK A01 T03060148  RH  038%=      5-min Rain = 0
KCO2 210153Z 13005KT 31/15 A3001 RMK A01 T03060148  RH  038%=      5-min Rain = 0
KCO2 210154Z 13005KT 31/15 A3002 RMK A01 T03050148  RH  039%=      5-min Rain = 0
KCO2 210155Z 13005KT 30/15 A3002 RMK A01 T03040148  RH  039%=      5-min Rain = 0
KCO2 210156Z 13005KT 31/15 A3002 RMK A01 T03050149  RH  039%=      5-min Rain = 0
KCO2 210157Z 13005KT 30/15 A3002 RMK A01 T03040149  RH  039%=      5-min Rain = 0
KCO2 210158Z 13005KT 30/15 A3002 RMK A01 T03040149  RH  039%=      5-min Rain = 0
KCO2 210159Z 13005KT 30/15 A3002 RMK A01 T03030149  RH  039%=      5-min Rain = 0
KCO2 210200Z 13005KT 30/15 A3002 RMK A01 T03030149  RH  039%=      5-min Rain = 0
KCO2 210201Z 13005KT 30/15 A3002 RMK A01 T03020149  RH  039%=      5-min Rain = 0
KCO2 210202Z 13005KT 30/15 A3002 RMK A01 T03020148  RH  039%=      5-min Rain = 0
KCO2 210203Z 13005KT 30/15 A3002 RMK A01 T03020149  RH  039%=      5-min Rain = 0
KCO2 210204Z 13006KT 30/15 A3002 RMK A01 T03010148  RH  039%=      5-min Rain = 0
KCO2 210205Z 13006KT 30/15 A3002 RMK A01 T03010148  RH  039%=      5-min Rain = 0
KCO2 210206Z 13006KT 30/15 A3002 RMK A01 T03010148  RH  040%=      5-min Rain = 0
KCO2 210207Z 13006KT 30/15 A3002 RMK A01 T03000148  RH  040%=      5-min Rain = 0
KCO2 210208Z 13006KT 30/15 A3002 RMK A01 T02990148  RH  040%=      5-min Rain = 0
KCO2 210209Z 13006KT 30/15 A3002 RMK A01 T02990148  RH  040%=      5-min Rain = 0
KCO2 210210Z 13005KT 30/15 A3002 RMK A01 T02990148  RH  040%=      5-min Rain = 0
KCO2 210211Z 13005KT 30/15 A3002 RMK A01 T02980148  RH  040%=      5-min Rain = 0
KCO2 210212Z 13005KT 30/15 A3002 RMK A01 T02980148  RH  040%=      5-min Rain = 0
KCO2 210213Z 13005KT 30/15 A3002 RMK A01 T02990147  RH  040%=      5-min Rain = 0
KCO2 210214Z 13005KT 30/15 A3002 RMK A01 T02990147  RH  040%=      5-min Rain = 0
KCO2 210215Z 13005KT 30/15 A3002 RMK A01 T02980147  RH  040%=      5-min Rain = 0
KCO2 210216Z 13005KT 30/15 A3002 RMK A01 T02990147  RH  040%=      5-min Rain = 0
KCO2 210217Z 13005KT 30/15 A3002 RMK A01 T02990147  RH  040%=      5-min Rain = 0
KCO2 210218Z 13005KT 30/15 A3002 RMK A01 T02980147  RH  040%=      5-min Rain = 0
KCO2 210219Z 12004KT 30/15 A3002 RMK A01 T02980148  RH  040%=      5-min Rain = 0
KCO2 210220Z 11004KT 30/15 A3002 RMK A01 T02980147  RH  040%=      5-min Rain = 0
KCO2 210221Z 11004KT 30/15 A3002 RMK A01 T02980146  RH  040%=      5-min Rain = 0
KCO2 210222Z 11004KT 30/15 A3002 RMK A01 T02980146  RH  040%=      5-min Rain = 0
KCO2 210223Z 11004KT 30/15 A3002 RMK A01 T02980147  RH  040%=      5-min Rain = 0
KCO2 210224Z 11004KT 30/15 A3002 RMK A01 T02980147  RH  040%=      5-min Rain = 0
KCO2 210225Z 11004KT 30/15 A3003 RMK A01 T02970147  RH  040%=      5-min Rain = 0
KCO2 210226Z 11005KT 30/15 A3003 RMK A01 T02970148  RH  040%=      5-min Rain = 0
KCO2 210227Z 11005KT 30/15 A3003 RMK A01 T02970147  RH  040%=      5-min Rain = 0
KCO2 210228Z 11005KT 30/15 A3003 RMK A01 T02960147  RH  040%=      5-min Rain = 0
KCO2 210229Z 11005KT 30/15 A3003 RMK A01 T02960147  RH  040%=      5-min Rain = 0
KCO2 210230Z 11005KT 30/15 A3003 RMK A01 T02960148  RH  040%=      5-min Rain = 0
KCO2 210231Z 12005KT 30/15 A3003 RMK A01 T02950148  RH  041%=      5-min Rain = 0
KCO2 210232Z 12005KT 30/15 A3003 RMK A01 T02950148  RH  041%=      5-min Rain = 0
KCO2 210233Z 12005KT 29/15 A3003 RMK A01 T02940148  RH  041%=      5-min Rain = 0
KCO2 210234Z 12005KT 29/15 A3003 RMK A01 T02930148  RH  041%=      5-min Rain = 0
KCO2 210235Z 12005KT 29/15 A3003 RMK A01 T02920148  RH  042%=      5-min Rain = 0
KCO2 210236Z 12005KT 29/15 A3003 RMK A01 T02910148  RH  042%=      5-min Rain = 0
KCO2 210237Z 12005KT 29/15 A3003 RMK A01 T02900148  RH  042%=      5-min Rain = 0
KCO2 210238Z 12005KT 29/15 A3003 RMK A01 T02890148  RH  042%=      5-min Rain = 0
KCO2 210239Z 12004KT 29/15 A3003 RMK A01 T02880148  RH  042%=      5-min Rain = 0
KCO2 210240Z 13004KT 29/15 A3003 RMK A01 T02880148  RH  042%=      5-min Rain = 0
KCO2 210241Z 13004KT 29/15 A3003 RMK A01 T02880148  RH  042%=      5-min Rain = 0
KCO2 210242Z 13004KT 29/15 A3003 RMK A01 T02880148  RH  043%=      5-min Rain = 0
KCO2 210243Z 13005KT 29/15 A3003 RMK A01 T02870148  RH  043%=      5-min Rain = 0
KCO2 210244Z 13005KT 29/15 A3003 RMK A01 T02880149  RH  043%=      5-min Rain = 0
KCO2 210245Z 13005KT 29/15 A3003 RMK A01 T02870148  RH  043%=      5-min Rain = 0
KCO2 210246Z 13005KT 29/15 A3003 RMK A01 T02870148  RH  043%=      5-min Rain = 0
KCO2 210247Z 13005KT 29/15 A3003 RMK A01 T02880148  RH  043%=      5-min Rain = 0
KCO2 210248Z 13005KT 29/15 A3003 RMK A01 T02870148  RH  043%=      5-min Rain = 0
KCO2 210249Z 13005KT 29/15 A3003 RMK A01 T02880148  RH  042%=      5-min Rain = 0
KCO2 210250Z 13005KT 29/15 A3003 RMK A01 T02880148  RH  042%=      5-min Rain = 0
KCO2 210251Z 13005KT 29/15 A3003 RMK A01 T02880148  RH  042%=      5-min Rain = 0
KCO2 210252Z 13005KT 29/15 A3003 RMK A01 T02880148  RH  042%=      5-min Rain = 0
KCO2 210253Z 13006KT 29/15 A3003 RMK A01 T02880148  RH  042%=      5-min Rain = 0
KCO2 210254Z 13005KT 29/15 A3003 RMK A01 T02880148  RH  042%=      5-min Rain = 0
KCO2 210255Z 13006KT 29/15 A3003 RMK A01 T02880148  RH  043%=      5-min Rain = 0
KCO2 210256Z 13005KT 29/15 A3003 RMK A01 T02880149  RH  043%=      5-min Rain = 0
KCO2 210257Z 13005KT 29/15 A3003 RMK A01 T02880149  RH  043%=      5-min Rain = 0
KCO2 210258Z 12005KT 29/15 A3003 RMK A01 T02880149  RH  043%=      5-min Rain = 0
KCO2 210259Z 12005KT 29/15 A3003 RMK A01 T02870149  RH  043%=      5-min Rain = 0
KCO2 210300Z 12005KT 29/15 A3003 RMK A01 T02870149  RH  043%=      5-min Rain = 0
KCO2 210301Z 12005KT 29/15 A3004 RMK A01 T02870149  RH  043%=      5-min Rain = 0
KCO2 210302Z 12005KT 29/15 A3004 RMK A01 T02860149  RH  043%=      5-min Rain = 0
KCO2 210303Z 12005KT 29/15 A3004 RMK A01 T02860149  RH  043%=      5-min Rain = 0
KCO2 210304Z 12005KT 29/15 A3004 RMK A01 T02860150  RH  043%=      5-min Rain = 0
KCO2 210305Z 12005KT 29/15 A3004 RMK A01 T02860150  RH  044%=      5-min Rain = 0
KCO2 210306Z 12006KT 29/15 A3004 RMK A01 T02850149  RH  044%=      5-min Rain = 0
KCO2 210307Z 12006KT 29/15 A3004 RMK A01 T02850150  RH  044%=      5-min Rain = 0
KCO2 210308Z 12006KT 29/15 A3004 RMK A01 T02850150  RH  044%=      5-min Rain = 0
KCO2 210309Z 12006KT 29/15 A3004 RMK A01 T02850150  RH  044%=      5-min Rain = 0
KCO2 210310Z 12006KT 28/15 A3004 RMK A01 T02840150  RH  044%=      5-min Rain = 0
KCO2 210311Z 12006KT 28/15 A3004 RMK A01 T02840150  RH  044%=      5-min Rain = 0
KCO2 210312Z 12006KT 28/15 A3004 RMK A01 T02840150  RH  044%=      5-min Rain = 0
KCO2 210313Z 12006KT 28/15 A3004 RMK A01 T02840150  RH  044%=      5-min Rain = 0
KCO2 210314Z 12006KT 28/15 A3004 RMK A01 T02840151  RH  044%=      5-min Rain = 0
KCO2 210315Z 12006KT 28/15 A3004 RMK A01 T02840151  RH  044%=      5-min Rain = 0
KCO2 210316Z 12006KT 28/15 A3004 RMK A01 T02830151  RH  045%=      5-min Rain = 0
KCO2 210317Z 12005KT 28/15 A3004 RMK A01 T02820151  RH  045%=      5-min Rain = 0
KCO2 210318Z 12005KT 28/15 A3004 RMK A01 T02820151  RH  045%=      5-min Rain = 0
KCO2 210319Z 12005KT 28/15 A3004 RMK A01 T02810151  RH  045%=      5-min Rain = 0
KCO2 210320Z 12005KT 28/15 A3004 RMK A01 T02810151  RH  045%=      5-min Rain = 0
KCO2 210321Z 12006KT 28/15 A3004 RMK A01 T02810152  RH  045%=      5-min Rain = 0
KCO2 210322Z 12006KT 28/15 A3004 RMK A01 T02810152  RH  045%=      5-min Rain = 0
KCO2 210323Z 12006KT 28/15 A3004 RMK A01 T02810152  RH  045%=      5-min Rain = 0
KCO2 210324Z 12006KT 28/15 A3004 RMK A01 T02810152  RH  046%=      5-min Rain = 0
KCO2 210325Z 12006KT 28/15 A3004 RMK A01 T02810152  RH  046%=      5-min Rain = 0
KCO2 210326Z 12006KT 28/15 A3004 RMK A01 T02800152  RH  046%=      5-min Rain = 0
KCO2 210327Z 12006KT 28/15 A3004 RMK A01 T02800152  RH  046%=      5-min Rain = 0
KCO2 210328Z 12005KT 28/15 A3004 RMK A01 T02800153  RH  046%=      5-min Rain = 0
KCO2 210329Z 12005KT 28/15 A3004 RMK A01 T02800153  RH  046%=      5-min Rain = 0
KCO2 210330Z 12005KT 28/15 A3004 RMK A01 T02800153  RH  046%=      5-min Rain = 0
KCO2 210331Z 12005KT 28/15 A3004 RMK A01 T02800153  RH  046%=      5-min Rain = 0
KCO2 210332Z 12005KT 28/15 A3004 RMK A01 T02790153  RH  046%=      5-min Rain = 0
KCO2 210333Z 12005KT 28/15 A3004 RMK A01 T02790153  RH  046%=      5-min Rain = 0
KCO2 210334Z 12006KT 28/15 A3004 RMK A01 T02790153  RH  046%=      5-min Rain = 0
KCO2 210335Z 12006KT 28/15 A3004 RMK A01 T02790153  RH  046%=      5-min Rain = 0
KCO2 210336Z 11006KT 28/15 A3004 RMK A01 T02790153  RH  046%=      5-min Rain = 0
KCO2 210337Z 11006KT 28/15 A3004 RMK A01 T02790153  RH  046%=      5-min Rain = 0
KCO2 210338Z 11006KT 28/15 A3004 RMK A01 T02790154  RH  046%=      5-min Rain = 0
KCO2 210339Z 11006KT 28/15 A3004 RMK A01 T02790154  RH  047%=      5-min Rain = 0
KCO2 210340Z 11006KT 28/15 A3004 RMK A01 T02780154  RH  047%=      5-min Rain = 0
KCO2 210341Z 11006KT 28/15 A3004 RMK A01 T02780154  RH  047%=      5-min Rain = 0
KCO2 210342Z 11006KT 28/15 A3004 RMK A01 T02780153  RH  047%=      5-min Rain = 0
KCO2 210343Z 11006KT 28/15 A3004 RMK A01 T02780154  RH  047%=      5-min Rain = 0
KCO2 210344Z 12006KT 28/15 A3004 RMK A01 T02780154  RH  047%=      5-min Rain = 0
KCO2 210345Z 12007KT 28/15 A3004 RMK A01 T02780154  RH  047%=      5-min Rain = 0
KCO2 210346Z 12006KT 28/15 A3004 RMK A01 T02780154  RH  047%=      5-min Rain = 0
KCO2 210347Z 12006KT 28/15 A3004 RMK A01 T02780154  RH  047%=      5-min Rain = 0
KCO2 210348Z 12006KT 28/15 A3004 RMK A01 T02780154  RH  047%=      5-min Rain = 0
KCO2 210349Z 12006KT 28/15 A3004 RMK A01 T02770154  RH  047%=      5-min Rain = 0
KCO2 210350Z 12006KT 28/15 A3004 RMK A01 T02770154  RH  047%=      5-min Rain = 0
KCO2 210351Z 12006KT 28/15 A3004 RMK A01 T02770154  RH  047%=      5-min Rain = 0
KCO2 210352Z 12005KT 28/15 A3004 RMK A01 T02760154  RH  047%=      5-min Rain = 0
KCO2 210353Z 13005KT 28/15 A3004 RMK A01 T02770154  RH  047%=      5-min Rain = 0
KCO2 210354Z 13005KT 28/15 A3004 RMK A01 T02760154  RH  047%=      5-min Rain = 0
KCO2 210355Z 12005KT 28/15 A3004 RMK A01 T02760154  RH  047%=      5-min Rain = 0
KCO2 210356Z 12005KT 28/15 A3004 RMK A01 T02760154  RH  047%=      5-min Rain = 0
KCO2 210357Z 12005KT 28/15 A3004 RMK A01 T02750154  RH  048%=      5-min Rain = 0
KCO2 210358Z 13005KT 28/15 A3004 RMK A01 T02750154  RH  048%=      5-min Rain = 0
KCO2 210359Z 13006KT 27/15 A3004 RMK A01 T02740154  RH  048%=      5-min Rain = 0
KCO2 210400Z 13006KT 27/15 A3004 RMK A01 T02740154  RH  048%=      5-min Rain = 0
KCO2 210401Z 13006KT 27/15 A3004 RMK A01 T02730154  RH  048%=      5-min Rain = 0
KCO2 210402Z 13006KT 27/15 A3004 RMK A01 T02730154  RH  048%=      5-min Rain = 0
KCO2 210403Z 12006KT 27/15 A3005 RMK A01 T02730154  RH  048%=      5-min Rain = 0
KCO2 210404Z 12006KT 27/15 A3005 RMK A01 T02730154  RH  048%=      5-min Rain = 0
KCO2 210405Z 12006KT 27/15 A3005 RMK A01 T02730154  RH  048%=      5-min Rain = 0
KCO2 210406Z 12006KT 27/15 A3005 RMK A01 T02730154  RH  048%=      5-min Rain = 0
KCO2 210407Z 12006KT 27/15 A3005 RMK A01 T02730154  RH  048%=      5-min Rain = 0
KCO2 210408Z 13006KT 27/15 A3005 RMK A01 T02720154  RH  048%=      5-min Rain = 0
KCO2 210409Z 13007KT 27/15 A3005 RMK A01 T02720154  RH  048%=      5-min Rain = 0
KCO2 210410Z 13007KT 27/15 A3005 RMK A01 T02730154  RH  048%=      5-min Rain = 0
KCO2 210411Z 13006KT 27/15 A3005 RMK A01 T02730154  RH  048%=      5-min Rain = 0
KCO2 210412Z 13006KT 27/15 A3005 RMK A01 T02730154  RH  048%=      5-min Rain = 0
KCO2 210413Z 13006KT 27/15 A3005 RMK A01 T02730154  RH  048%=      5-min Rain = 0
KCO2 210414Z 13006KT 27/15 A3005 RMK A01 T02730154  RH  048%=      5-min Rain = 0
KCO2 210415Z 13006KT 27/15 A3005 RMK A01 T02730154  RH  048%=      5-min Rain = 0
KCO2 210416Z 13006KT 27/15 A3005 RMK A01 T02730153  RH  048%=      5-min Rain = 0
KCO2 210417Z 12006KT 27/15 A3005 RMK A01 T02730154  RH  048%=      5-min Rain = 0
KCO2 210418Z 12006KT 27/15 A3005 RMK A01 T02730154  RH  048%=      5-min Rain = 0
KCO2 210419Z 12007KT 27/15 A3005 RMK A01 T02730154  RH  048%=      5-min Rain = 0
KCO2 210420Z 12006KT 27/15 A3004 RMK A01 T02720154  RH  048%=      5-min Rain = 0
KCO2 210421Z 12006KT 27/15 A3004 RMK A01 T02720154  RH  048%=      5-min Rain = 0
KCO2 210422Z 12006KT 27/15 A3004 RMK A01 T02720154  RH  049%=      5-min Rain = 0
KCO2 210423Z 12006KT 27/15 A3004 RMK A01 T02710154  RH  049%=      5-min Rain = 0
KCO2 210424Z 12006KT 27/15 A3004 RMK A01 T02710154  RH  049%=      5-min Rain = 0
KCO2 210425Z 12006KT 27/15 A3004 RMK A01 T02700154  RH  049%=      5-min Rain = 0
KCO2 210426Z 12006KT 27/15 A3004 RMK A01 T02700154  RH  049%=      5-min Rain = 0
KCO2 210427Z 12006KT 27/15 A3004 RMK A01 T02700154  RH  049%=      5-min Rain = 0
KCO2 210428Z 12006KT 27/15 A3004 RMK A01 T02690154  RH  049%=      5-min Rain = 0
KCO2 210429Z 12006KT 27/15 A3004 RMK A01 T02690154  RH  049%=      5-min Rain = 0
KCO2 210430Z 12007KT 27/15 A3004 RMK A01 T02690154  RH  049%=      5-min Rain = 0
KCO2 210431Z 12006KT 27/15 A3004 RMK A01 T02690154  RH  049%=      5-min Rain = 0
KCO2 210432Z 12006KT 27/15 A3004 RMK A01 T02690154  RH  049%=      5-min Rain = 0
KCO2 210433Z 12006KT 27/15 A3004 RMK A01 T02690154  RH  049%=      5-min Rain = 0
KCO2 210434Z 12006KT 27/15 A3004 RMK A01 T02690154  RH  049%=      5-min Rain = 0
KCO2 210435Z 12006KT 27/15 A3004 RMK A01 T02690154  RH  049%=      5-min Rain = 0
KCO2 210436Z 12006KT 27/15 A3004 RMK A01 T02690154  RH  049%=      5-min Rain = 0
KCO2 210437Z 12006KT 27/15 A3004 RMK A01 T02690154  RH  049%=      5-min Rain = 0
KCO2 210438Z 12006KT 27/15 A3004 RMK A01 T02690154  RH  049%=      5-min Rain = 0
KCO2 210439Z 11007KT 27/15 A3004 RMK A01 T02690154  RH  049%=      5-min Rain = 0
KCO2 210440Z 12007KT 27/15 A3004 RMK A01 T02690154  RH  049%=      5-min Rain = 0
KCO2 210441Z 12007KT 27/15 A3004 RMK A01 T02690153  RH  049%=      5-min Rain = 0
KCO2 210442Z 12007KT 27/15 A3004 RMK A01 T02690154  RH  049%=      5-min Rain = 0
KCO2 210443Z 12007KT 27/15 A3004 RMK A01 T02690153  RH  049%=      5-min Rain = 0
KCO2 210444Z 12007KT 27/15 A3004 RMK A01 T02680154  RH  049%=      5-min Rain = 0
KCO2 210445Z 11007KT 27/15 A3004 RMK A01 T02670153  RH  050%=      5-min Rain = 0
KCO2 210446Z 12007KT 27/15 A3004 RMK A01 T02670153  RH  050%=      5-min Rain = 0
KCO2 210447Z 12007KT 27/15 A3004 RMK A01 T02670154  RH  050%=      5-min Rain = 0
KCO2 210448Z 12007KT 27/15 A3004 RMK A01 T02670153  RH  050%=      5-min Rain = 0
KCO2 210449Z 12008KT 27/15 A3004 RMK A01 T02670153  RH  050%=      5-min Rain = 0
KCO2 210450Z 12008KT 27/15 A3004 RMK A01 T02670153  RH  049%=      5-min Rain = 0
KCO2 210451Z 12008KT 27/15 A3004 RMK A01 T02690153  RH  049%=      5-min Rain = 0
KCO2 210452Z 12007KT 27/15 A3004 RMK A01 T02700153  RH  049%=      5-min Rain = 0
KCO2 210453Z 12007KT 27/15 A3004 RMK A01 T02700153  RH  049%=      5-min Rain = 0
KCO2 210454Z 11007KT 27/15 A3004 RMK A01 T02710153  RH  048%=      5-min Rain = 0
KCO2 210455Z 12007KT 27/15 A3004 RMK A01 T02710153  RH  048%=      5-min Rain = 0
KCO2 210456Z 11007KT 27/15 A3004 RMK A01 T02710153  RH  049%=      5-min Rain = 0
KCO2 210457Z 11007KT 27/15 A3004 RMK A01 T02700153  RH  049%=      5-min Rain = 0
KCO2 210458Z 11007KT 27/15 A3004 RMK A01 T02690153  RH  049%=      5-min Rain = 0
KCO2 210459Z 11007KT 27/15 A3004 RMK A01 T02690153  RH  049%=      5-min Rain = 0

Page generated in 0.0716 seconds.